EW4266 Weather Reports


time (UTC)temp
F
wind
direction
speed
knots
gust
knots
rain 1hr
in
rain 24hr
in
rain mn
in
humidity
%
barometer
mb
20260905220300 69 32 3.5 7.8 0.00 0.00 0.00 78 1013.1
20260905220215 69 34 2.6 7.8 0.00 0.00 0.00 78 1013.1
20260905220025 69 344 3.5 7.8 0.00 0.00 0.00 78 1013.1
20260905215939 69 5 3.5 7.8 0.00 0.00 0.00 78 1013.1
20260905215810 69 30 1.7 7.8 0.00 0.00 0.00 79 1013.0
20260905215731 69 355 1.7 7.8 0.00 0.00 0.00 79 1013.0
20260905215536 69 330 3.5 7.8 0.00 0.00 0.00 78 1013.0
20260905215458 69 360 2.6 7.8 0.00 0.00 0.00 78 1013.0
20260905215323 69 20 2.6 7.0 0.00 0.00 0.00 78 1012.9
20260905215241 69 20 2.6 7.0 0.00 0.00 0.00 79 1013.0
20260905215111 69 338 2.6 7.0 0.00 0.00 0.00 79 1012.9
20260905215033 69 15 2.6 7.0 0.00 0.00 0.00 78 1012.9
20260905214904 69 348 1.7 5.2 0.00 0.00 0.00 78 1012.9
20260905214819 69 348 2.6 5.2 0.00 0.00 0.00 78 1013.0
20260905214628 69 318 3.5 5.2 0.00 0.00 0.00 78 1012.9
20260905214523 69 336 3.5 5.2 0.00 0.00 0.00 78 1012.9
20260905214446 69 355 3.5 5.2 0.00 0.00 0.00 78 1012.9
20260905214330 69 327 3.5 5.2 0.00 0.00 0.00 78 1012.9
20260905214253 69 309 3.5 5.2 0.00 0.00 0.00 77 1012.9
20260905214212 69 333 2.6 5.2 0.00 0.00 0.00 79 1012.9
20260905214112 69 317 2.6 5.2 0.00 0.00 0.00 78 1012.9
20260905214035 69 329 2.6 7.0 0.00 0.00 0.00 78 1012.9
20260905213837 69 338 2.6 8.7 0.00 0.00 0.00 77 1012.9
20260905213757 69 300 2.6 8.7 0.00 0.00 0.00 78 1012.8
20260905213643 69 321 2.6 8.7 0.00 0.00 0.00 78 1012.8
20260905213605 69 343 3.5 8.7 0.00 0.00 0.00 78 1012.8
20260905213415 69 341 3.5 8.7 0.00 0.00 0.00 77 1012.8
20260905213328 69 350 3.5 8.7 0.00 0.00 0.00 77 1012.8
20260905213159 69 329 6.1 8.7 0.00 0.00 0.00 77 1012.7
20260905213037 69 355 5.2 9.6 0.00 0.00 0.00 77 1012.8
20260905212940 69 13 4.3 9.6 0.00 0.00 0.00 76 1012.7
20260905212856 69 360 4.3 9.6 0.00 0.00 0.00 76 1012.8
20260905212817 69 345 4.3 9.6 0.00 0.00 0.00 76 1012.8
20260905212718 69 348 4.3 9.6 0.00 0.00 0.00 76 1012.7
20260905212632 69 315 4.3 9.6 0.00 0.00 0.00 77 1012.7
20260905212443 69 316 5.2 9.6 0.00 0.00 0.00 76 1012.7
20260905212340 69 338 4.3 9.6 0.00 0.00 0.00 77 1012.7
20260905212224 69 311 3.5 7.0 0.00 0.00 0.00 76 1012.7
20260905212129 69 13 4.3 7.0 0.00 0.00 0.00 77 1012.8
20260905212053 69 346 4.3 7.8 0.00 0.00 0.00 76 1012.8
20260905211958 69 329 4.3 7.8 0.00 0.00 0.00 76 1012.7
20260905211838 69 344 3.5 7.8 0.00 0.00 0.00 76 1012.7
20260905211752 69 319 2.6 9.6 0.00 0.00 0.00 77 1012.7
20260905211654 69 327 3.5 9.6 0.00 0.00 0.00 77 1012.7
20260905211614 69 348 4.3 9.6 0.00 0.00 0.00 76 1012.7
20260905211458 69 344 4.3 9.6 0.00 0.00 0.00 76 1012.6
20260905211338 69 338 4.3 9.6 0.00 0.00 0.00 75 1012.7
20260905211253 69 331 5.2 9.6 0.00 0.00 0.00 75 1012.7
20260905211218 70 323 5.2 9.6 0.00 0.00 0.00 75 1012.6
20260905211023 70 337 6.1 9.6 0.00 0.00 0.00 74 1012.6
20260905210925 70 344 5.2 8.7 0.00 0.00 0.00 75 1012.6
20260905210828 70 345 5.2 8.7 0.00 0.00 0.00 75 1012.6
20260905210748 70 355 5.2 8.7 0.00 0.00 0.00 75 1012.6
20260905210722 70 355 5.2 8.7 0.00 0.00 0.00 74 1012.6
20260905210624 70 350 5.2 8.7 0.00 0.00 0.00 75 1012.6
20260905210525 70 344 5.2 8.7 0.00 0.00 0.00 75 1012.6
20260905210327 70 350 4.3 8.7 0.00 0.00 0.00 75 1012.6
20260905210249 70 348 5.2 8.7 0.00 0.00 0.00 74 1012.6
20260905210031 70 355 6.1 8.7 0.00 0.00 0.00 74 1012.5
20260905205932 70 330 6.1 8.7 0.00 0.00 0.00 74 1012.5
20260905205733 70 5 3.5 7.8 0.00 0.00 0.00 75 1012.5
20260905205656 70 341 3.5 7.8 0.00 0.00 0.00 75 1012.5
20260905205601 70 321 3.5 7.8 0.00 0.00 0.00 75 1012.5
20260905205523 70 338 3.5 7.8 0.00 0.00 0.00 74 1012.5
20260905205327 70 325 3.5 7.8 0.00 0.00 0.00 75 1012.4
20260905205228 70 10 3.5 7.8 0.00 0.00 0.00 75 1012.4
20260905205131 70 324 4.3 7.8 0.00 0.00 0.00 74 1012.4
20260905205036 71 319 4.3 7.8 0.00 0.00 0.00 73 1012.4
20260905204959 71 313 4.3 7.8 0.00 0.00 0.00 73 1012.4
20260905204823 71 332 3.5 7.8 0.00 0.00 0.00 75 1012.4
20260905204738 71 325 3.5 8.7 0.00 0.00 0.00 75 1012.4
20260905204659 71 309 3.5 8.7 0.00 0.00 0.00 74 1012.4
20260905204619 71 333 4.3 8.7 0.00 0.00 0.00 74 1012.4
20260905204534 71 329 4.3 8.7 0.00 0.00 0.00 75 1012.4
20260905204404 71 329 4.3 8.7 0.00 0.00 0.00 74 1012.4
20260905204326 71 325 3.5 8.7 0.00 0.00 0.00 75 1012.4
20260905204132 70 324 3.5 8.7 0.00 0.00 0.00 75 1012.4
20260905204057 70 331 3.5 8.7 0.00 0.00 0.00 76 1012.4
20260905204001 70 327 6.1 8.7 0.00 0.00 0.00 75 1012.4
20260905203840 70 316 5.2 8.7 0.00 0.00 0.00 74 1012.4
20260905203723 70 329 4.3 8.7 0.00 0.00 0.00 74 1012.4
20260905203645 70 325 5.2 8.7 0.00 0.00 0.00 74 1012.4
20260905203517 70 317 5.2 8.7 0.00 0.00 0.00 74 1012.4
20260905203433 70 321 4.3 8.7 0.00 0.00 0.00 76 1012.4
20260905203244 70 344 5.2 7.8 0.00 0.00 0.00 76 1012.4
20260905203138 70 337 6.1 7.8 0.00 0.00 0.00 75 1012.4
20260905203025 70 341 3.5 7.8 0.00 0.00 0.00 74 1012.4
20260905202948 70 311 3.5 7.0 0.00 0.00 0.00 75 1012.4
20260905202817 70 315 3.5 7.0 0.00 0.00 0.00 74 1012.4
20260905202732 70 319 3.5 8.7 0.00 0.00 0.00 75 1012.4
20260905202602 70 313 2.6 8.7 0.00 0.00 0.00 76 1012.4
20260905202524 70 333 2.6 8.7 0.00 0.00 0.00 75 1012.4
20260905202328 70 347 3.5 8.7 0.00 0.00 0.00 75 1012.4
20260905202250 70 329 3.5 9.6 0.00 0.00 0.00 77 1012.4
20260905202134 70 338 3.5 10.4 0.00 0.00 0.00 76 1012.4
20260905202056 70 342 4.3 10.4 0.00 0.00 0.00 76 1012.4
20260905202023 70 335 5.2 10.4 0.00 0.00 0.00 75 1012.4
20260905201906 70 349 5.2 10.4 0.00 0.00 0.00 73 1012.4
20260905201827 70 5 5.2 10.4 0.00 0.00 0.00 75 1012.4
20260905201708 70 338 4.3 10.4 0.00 0.00 0.00 76 1012.3
20260905201623 70 38 3.5 10.4 0.00 0.00 0.00 76 1012.3
20260905201452 70 355 5.2 10.4 0.00 0.00 0.00 76 1012.4
20260905201415 70 5 6.1 10.4 0.00 0.00 0.00 75 1012.4
20260905201240 70 355 5.2 10.4 0.00 0.00 0.00 76 1012.4
20260905201140 70 339 5.2 10.4 0.00 0.00 0.00 75 1012.4
20260905201025 70 331 7.0 10.4 0.00 0.00 0.00 74 1012.3
20260905200945 70 346 7.0 10.4 0.00 0.00 0.00 74 1012.4
20260905200912 70 315 6.1 11.3 0.00 0.00 0.00 76 1012.4
20260905200817 70 315 6.1 11.3 0.00 0.00 0.00 75 1012.4
20260905200738 70 325 7.0 11.3 0.00 0.00 0.00 75 1012.4
20260905200610 71 337 7.8 11.3 0.00 0.00 0.00 74 1012.3
20260905200525 71 350 7.8 11.3 0.00 0.00 0.00 74 1012.3
20260905200334 71 329 6.1 11.3 0.00 0.00 0.00 75 1012.3
20260905200249 71 331 5.2 11.3 0.00 0.00 0.00 74 1012.3
20260905200119 71 355 5.2 11.3 0.00 0.00 0.00 73 1012.3
20260905200041 72 24 5.2 11.3 0.00 0.00 0.00 73 1012.3
20260905195843 72 350 4.3 11.3 0.00 0.00 0.00 73 1012.3
20260905195804 72 325 4.3 11.3 0.00 0.00 0.00 73 1012.3
20260905195711 72 355 5.2 11.3 0.00 0.00 0.00 73 1012.3
20260905195632 72 346 6.1 11.3 0.00 0.00 0.00 73 1012.3
20260905195445 72 339 7.8 11.3 0.00 0.00 0.00 76 1012.3
20260905195337 72 335 7.8 11.3 0.00 0.00 0.00 76 1012.3
20260905195240 72 343 7.8 11.3 0.00 0.00 0.00 75 1012.3
20260905195201 72 331 8.7 11.3 0.00 0.00 0.00 75 1012.4
20260905195102 71 5 7.8 11.3 0.00 0.00 0.00 75 1012.4
20260905194909 71 318 7.0 11.3 0.00 0.00 0.00 75 1012.4
20260905194723 71 324 7.0 11.3 0.00 0.00 0.00 75 1012.3
20260905194631 70 326 6.1 11.3 0.00 0.00 0.00 77 1012.4
20260905194553 70 331 5.2 11.3 0.00 0.00 0.00 77 1012.4
20260905194402 70 311 6.1 12.2 0.00 0.00 0.00 77 1012.4
20260905194317 70 313 7.8 12.2 0.00 0.00 0.00 76 1012.4
20260905194148 70 355 7.8 12.2 0.00 0.00 0.00 76 1012.4
20260905194049 70 298 7.0 12.2 0.00 0.00 0.00 75 1012.4
20260905194012 70 333 7.8 12.2 0.00 0.00 0.00 76 1012.4
20260905193915 70 350 7.0 12.2 0.00 0.00 0.00 75 1012.4
20260905193838 70 5 7.0 12.2 0.00 0.00 0.00 75 1012.4
20260905193708 70 53 6.1 12.2 0.00 0.00 0.00 75 1012.4
20260905193625 70 13 7.8 12.2 0.00 0.00 0.00 74 1012.4
20260905193453 70 355 7.0 11.3 0.00 0.00 0.00 75 1012.4
20260905193352 71 348 7.0 11.3 0.00 0.00 0.00 75 1012.4
20260905193241 71 336 7.8 11.3 0.00 0.00 0.00 74 1012.4
20260905193203 71 355 6.1 11.3 0.00 0.00 0.00 76 1012.3
20260905193004 71 14 5.2 8.7 0.00 0.00 0.00 75 1012.3
20260905192925 71 330 5.2 8.7 0.00 0.00 0.00 75 1012.3
20260905192737 71 360 4.3 9.6 0.00 0.00 0.00 74 1012.2
20260905192632 71 24 6.1 9.6 0.00 0.00 0.00 73 1012.3
20260905192605 71 332 6.1 9.6 0.00 0.00 0.00 74 1012.3
20260905192508 71 331 6.1 9.6 0.00 0.00 0.00 74 1012.3
20260905192430 71 330 5.2 9.6 0.00 0.00 0.00 76 1012.3
20260905192250 71 319 2.6 9.6 0.00 0.00 0.00 75 1012.2
20260905192148 71 350 2.6 9.6 0.00 0.00 0.00 74 1012.3
20260905192017 71 38 5.2 9.6 0.00 0.00 0.00 75 1012.3
20260905191917 71 5 5.2 9.6 0.00 0.00 0.00 74 1012.3
20260905191821 71 336 5.2 7.8 0.00 0.00 0.00 75 1012.3
20260905191744 71 329 4.3 7.0 0.00 0.00 0.00 77 1012.3
20260905191552 70 344 2.6 4.3 0.00 0.00 0.00 75 1012.3
20260905191453 70 311 2.6 8.7 0.00 0.00 0.00 76 1012.4
20260905191334 70 355 1.7 9.6 0.00 0.00 0.00 76 1012.4
20260905191256 70 355 1.7 9.6 0.00 0.00 0.00 76 1012.3
20260905191217 70 341 1.7 9.6 0.00 0.00 0.00 76 1012.4
20260905191120 70 331 2.6 9.6 0.00 0.00 0.00 77 1012.4
20260905191041 70 341 2.6 9.6 0.00 0.00 0.00 76 1012.4
20260905190910 70 36 3.5 10.4 0.00 0.00 0.00 77 1012.4
20260905190829 70 350 3.5 10.4 0.00 0.00 0.00 77 1012.4
20260905190659 70 5 6.1 10.4 0.00 0.00 0.00 76 1012.4
20260905190622 70 325 5.2 10.4 0.00 0.00 0.00 76 1012.4
20260905190507 70 5 3.5 10.4 0.00 0.00 0.00 76 1012.4
20260905190407 70 360 3.5 10.4 0.00 0.00 0.00 75 1012.4
20260905190339 70 355 2.6 10.4 0.00 0.00 0.00 75 1012.4
20260905190209 70 22 6.1 10.4 0.00 0.00 0.00 75 1012.4
20260905190123 70 22 6.1 10.4 0.00 0.00 0.00 76 1012.4
20260905185934 70 11 4.3 10.4 0.00 0.00 0.00 77 1012.4
20260905185829 70 315 5.2 10.4 0.00 0.00 0.00 77 1012.5
20260905185751 70 340 6.1 10.4 0.00 0.00 0.00 77 1012.5
20260905185639 70 343 6.1 10.4 0.00 0.00 0.00 76 1012.5
20260905185600 70 13 5.2 11.3 0.00 0.00 0.00 77 1012.5
20260905185453 69 360 6.1 11.3 0.00 0.00 0.00 76 1012.5
20260905185415 69 360 6.1 11.3 0.00 0.00 0.00 76 1012.5
20260905185246 69 326 7.0 11.3 0.00 0.00 0.00 77 1012.6
20260905185202 69 323 6.1 11.3 0.00 0.00 0.00 76 1012.5
20260905185031 69 331 7.0 11.3 0.00 0.00 0.00 76 1012.6
20260905184931 69 341 7.0 11.3 0.00 0.00 0.00 76 1012.6
20260905184802 69 313 6.1 11.3 0.00 0.00 0.00 77 1012.5
20260905184644 69 316 5.2 11.3 0.00 0.00 0.00 78 1012.5
20260905184606 69 13 5.2 12.2 0.00 0.00 0.00 77 1012.6
20260905184415 69 355 6.1 12.2 0.00 0.00 0.00 78 1012.5
20260905184333 69 326 7.0 12.2 0.00 0.00 0.00 77 1012.5
20260905184203 69 348 6.1 12.2 0.00 0.00 0.00 78 1012.5
20260905184126 69 333 7.0 12.2 0.00 0.00 0.00 78 1012.5
20260905183929 69 360 8.7 12.2 0.00 0.00 0.00 76 1012.5
20260905183852 69 342 9.6 12.2 0.00 0.00 0.00 76 1012.5
20260905183735 69 355 8.7 12.2 0.00 0.00 0.00 77 1012.5
20260905183658 69 324 7.0 11.3 0.00 0.00 0.00 77 1012.5
20260905183458 69 355 7.8 11.3 0.00 0.00 0.00 78 1012.5
20260905183420 69 340 7.8 11.3 0.00 0.00 0.00 78 1012.5
20260905183231 69 321 5.2 12.2 0.00 0.00 0.00 78 1012.5
20260905183149 69 355 3.5 12.2 0.00 0.00 0.00 78 1012.5
20260905183019 69 11 3.5 13.9 0.00 0.00 0.00 76 1012.5
20260905182941 69 62 3.5 15.6 0.00 0.00 0.00 76 1012.5
20260905182742 70 360 6.1 15.6 0.00 0.00 0.00 76 1012.6
20260905182704 70 347 7.0 15.6 0.00 0.00 0.00 76 1012.5
20260905182609 70 333 7.8 15.6 0.00 0.00 0.00 76 1012.6
20260905182530 70 323 8.7 15.6 0.00 0.00 0.00 75 1012.6
20260905182401 70 327 9.6 15.6 0.00 0.00 0.00 74 1012.6
20260905182306 70 300 9.6 15.6 0.00 0.00 0.00 74 1012.6
20260905182113 71 300 7.0 15.6 0.00 0.00 0.00 75 1012.6
20260905182035 71 317 7.0 10.4 0.00 0.00 0.00 76 1012.6
20260905181842 70 338 6.1 10.4 0.00 0.00 0.00 78 1012.6
20260905181742 70 336 6.1 10.4 0.00 0.00 0.00 79 1012.6
20260905181647 69 343 7.0 11.3 0.00 0.00 0.00 80 1012.6
20260905181528 69 331 7.8 11.3 0.00 0.00 0.00 80 1012.6
20260905181432 69 355 7.8 11.3 0.00 0.00 0.00 81 1012.6
20260905181353 68 343 6.1 11.3 0.00 0.00 0.00 81 1012.7
20260905181202 68 342 5.2 11.3 0.00 0.00 0.00 80 1012.7
20260905181117 68 5 5.2 11.3 0.00 0.00 0.00 80 1012.7
20260905180929 68 327 6.1 11.3 0.00 0.00 0.00 80 1012.6
20260905180844 68 333 7.0 11.3 0.00 0.00 0.00 80 1012.6
20260905180717 68 28 4.3 7.8 0.00 0.00 0.00 81 1012.6
20260905180617 68 328 4.3 7.8 0.00 0.00 0.00 82 1012.7
20260905180447 67 342 4.3 10.4 0.00 0.00 0.00 82 1012.7
20260905180342 67 321 5.2 10.4 0.00 0.00 0.00 83 1012.7
20260905180224 67 341 4.3 10.4 0.00 0.00 0.00 84 1012.6
20260905180145 67 328 4.3 11.3 0.00 0.00 0.00 83 1012.7
20260905180015 67 348 3.5 11.3 0.00 0.00 0.00 83 1012.6
20260905175929 67 360 3.5 11.3 0.00 0.00 0.00 82 1012.6
20260905175740 67 12 7.0 12.2 0.00 0.00 0.00 81 1012.7
20260905175654 67 340 7.0 12.2 0.00 0.00 0.00 81 1012.7
20260905175508 67 355 7.0 12.2 0.00 0.00 0.00 81 1012.7
20260905175429 67 348 7.0 12.2 0.00 0.00 0.00 81 1012.7
20260905175232 67 337 7.0 12.2 0.00 0.00 0.00 81 1012.7
20260905175155 67 311 7.0 12.2 0.00 0.00 0.00 81 1012.7
20260905175059 67 350 7.8 12.2 0.00 0.00 0.00 81 1012.7
20260905175021 67 360 7.8 12.2 0.00 0.00 0.00 81 1012.7
20260905174823 68 348 7.0 11.3 0.00 0.00 0.00 81 1012.7
20260905174725 68 345 7.0 11.3 0.00 0.00 0.00 82 1012.7
20260905174648 68 355 6.1 11.3 0.00 0.00 0.00 81 1012.7
20260905174601 68 350 6.1 11.3 0.00 0.00 0.00 81 1012.6
20260905174434 68 347 7.8 11.3 0.00 0.00 0.00 82 1012.6
20260905174334 68 343 8.7 11.3 0.00 0.00 0.00 81 1012.6
20260905174138 68 341 5.2 9.6 0.00 0.00 0.00 83 1012.7
20260905174059 68 350 6.1 9.6 0.00 0.00 0.00 83 1012.7
20260905173923 68 350 5.2 7.8 0.00 0.00 0.00 84 1012.7
20260905173839 68 350 4.3 7.8 0.00 0.00 0.00 83 1012.7
20260905173630 68 5 3.5 7.8 0.00 0.00 0.00 83 1012.7
20260905173545 68 297 3.5 7.8 0.00 0.00 0.00 83 1012.7
20260905173414 68 340 4.3 7.8 0.00 0.00 0.00 83 1012.7
20260905173318 68 336 4.3 7.8 0.00 0.00 0.00 83 1012.7
20260905173122 67 347 3.5 7.8 0.00 0.00 0.00 84 1012.7
20260905173043 67 328 2.6 7.8 0.00 0.00 0.00 84 1012.7
20260905172947 67 328 2.6 7.8 0.00 0.00 0.00 85 1012.7
20260905172827 67 302 3.5 9.6 0.00 0.00 0.00 85 1012.7
20260905172731 67 326 4.3 9.6 0.00 0.00 0.00 83 1012.7
20260905172652 67 321 5.2 9.6 0.00 0.00 0.00 84 1012.7
20260905172624 67 324 4.3 9.6 0.00 0.00 0.00 84 1012.7
20260905172428 67 343 4.3 9.6 0.00 0.00 0.00 85 1012.7
20260905172334 67 311 4.3 9.6 0.00 0.00 0.00 85 1012.6
20260905172236 67 343 3.5 9.6 0.00 0.00 0.00 84 1012.7
20260905172137 67 327 4.3 9.6 0.00 0.00 0.00 84 1012.7
20260905172007 67 320 5.2 9.6 0.00 0.00 0.00 84 1012.6
20260905171922 67 322 5.2 9.6 0.00 0.00 0.00 84 1012.6
20260905171730 67 338 5.2 9.6 0.00 0.00 0.00 83 1012.7
20260905171645 67 326 5.2 9.6 0.00 0.00 0.00 83 1012.7
20260905171514 67 343 5.2 9.6 0.00 0.00 0.00 83 1012.7
20260905171437 67 321 7.0 9.6 0.00 0.00 0.00 83 1012.7
20260905171301 67 327 7.0 9.6 0.00 0.00 0.00 82 1012.7
20260905171229 68 350 5.2 9.6 0.00 0.00 0.00 82 1012.7
20260905170935 68 339 5.2 8.7 0.00 0.00 0.00 81 1012.6
20260905170807 68 336 6.1 8.7 0.00 0.00 0.00 81 1012.6
20260905170650 68 342 5.2 7.8 0.00 0.00 0.00 81 1012.7
20260905170610 68 313 5.2 7.8 0.00 0.00 0.00 81 1012.6
20260905170441 68 323 4.3 9.6 0.00 0.00 0.00 81 1012.6
20260905170335 68 338 5.2 9.6 0.00 0.00 0.00 81 1012.6
20260905170145 68 323 3.5 9.6 0.00 0.00 0.00 82 1012.6
20260905170106 68 313 3.5 9.6 0.00 0.00 0.00 81 1012.6
20260905165928 68 338 4.3 9.6 0.00 0.00 0.00 81 1012.6
20260905165855 68 315 3.5 9.6 0.00 0.00 0.00 82 1012.6
20260905165704 68 300 6.1 9.6 0.00 0.00 0.00 81 1012.7
20260905165619 68 333 6.1 9.6 0.00 0.00 0.00 82 1012.6
20260905165430 68 311 3.5 7.8 0.00 0.00 0.00 82 1012.6
20260905165343 68 323 3.5 7.8 0.00 0.00 0.00 81 1012.6
20260905165134 68 343 4.3 7.8 0.00 0.00 0.00 83 1012.7
20260905165030 68 335 4.3 7.8 0.00 0.00 0.00 83 1012.7
20260905164952 68 350 4.3 7.0 0.00 0.00 0.00 83 1012.6
20260905164854 68 12 3.5 8.7 0.00 0.00 0.00 84 1012.6
20260905164816 67 343 3.5 8.7 0.00 0.00 0.00 84 1012.6
20260905164624 67 315 3.5 8.7 0.00 0.00 0.00 83 1012.6
20260905164526 67 329 3.5 9.6 0.00 0.00 0.00 84 1012.6
20260905164409 67 296 4.3 9.6 0.00 0.00 0.00 83 1012.6
20260905164330 67 344 4.3 9.6 0.00 0.00 0.00 82 1012.6
20260905164134 67 324 5.2 9.6 0.00 0.00 0.00 82 1012.6
20260905164037 67 300 5.2 11.3 0.00 0.00 0.00 83 1012.7
20260905163923 67 330 4.3 11.3 0.00 0.00 0.00 83 1012.7
20260905163844 67 355 5.2 11.3 0.00 0.00 0.00 82 1012.7
20260905163717 67 327 5.2 11.3 0.00 0.00 0.00 82 1012.7
20260905163633 68 346 4.3 11.3 0.00 0.00 0.00 82 1012.7
20260905163443 68 339 7.0 11.3 0.00 0.00 0.00 81 1012.7
20260905163343 68 340 7.0 11.3 0.00 0.00 0.00 81 1012.7
20260905163145 68 300 5.2 8.7 0.00 0.00 0.00 81 1012.7
20260905163107 68 327 5.2 7.8 0.00 0.00 0.00 81 1012.7
20260905162946 68 325 4.3 7.8 0.00 0.00 0.00 81 1012.7
20260905162842 68 346 3.5 7.8 0.00 0.00 0.00 82 1012.7
20260905162736 68 330 3.5 9.6 0.00 0.00 0.00 82 1012.8
20260905162638 68 338 2.6 9.6 0.00 0.00 0.00 82 1012.7
20260905162605 68 9 2.6 9.6 0.00 0.00 0.00 82 1012.8
20260905162507 68 318 1.7 9.6 0.00 0.00 0.00 82 1012.7
20260905162428 68 339 1.7 9.6 0.00 0.00 0.00 82 1012.7
20260905162233 68 330 4.3 11.3 0.00 0.00 0.00 82 1012.8
20260905162136 68 342 5.2 11.3 0.00 0.00 0.00 81 1012.8
20260905162041 68 316 6.1 11.3 0.00 0.00 0.00 81 1012.8
20260905161941 68 20 5.2 11.3 0.00 0.00 0.00 81 1012.8
20260905161810 68 344 5.2 11.3 0.00 0.00 0.00 81 1012.8
20260905161726 68 304 5.2 11.3 0.00 0.00 0.00 81 1012.8
20260905161555 68 305 7.0 11.3 0.00 0.00 0.00 80 1012.7
20260905161518 68 355 7.0 11.3 0.00 0.00 0.00 81 1012.8
20260905161326 68 339 7.0 11.3 0.00 0.00 0.00 80 1012.8
20260905161247 68 355 6.1 9.6 0.00 0.00 0.00 81 1012.7
20260905161150 68 314 5.2 9.6 0.00 0.00 0.00 81 1012.8
20260905161030 68 340 6.1 9.6 0.00 0.00 0.00 80 1012.8
20260905160926 68 346 5.2 11.3 0.00 0.00 0.00 81 1012.8
20260905160834 68 331 4.3 11.3 0.00 0.00 0.00 80 1012.8
20260905160736 68 325 4.3 11.3 0.00 0.00 0.00 80 1012.8
20260905160624 68 360 5.2 11.3 0.00 0.00 0.00 80 1012.7
20260905160545 68 346 5.2 11.3 0.00 0.00 0.00 80 1012.7
20260905160417 68 325 4.3 11.3 0.00 0.00 0.00 81 1012.7
20260905160332 68 337 5.2 11.3 0.00 0.00 0.00 80 1012.7
20260905160143 68 315 7.0 11.3 0.00 0.00 0.00 80 1012.8
20260905160039 68 325 6.1 9.6 0.00 0.00 0.00 81 1012.8
20260905160009 68 355 6.1 9.6 0.00 0.00 0.00 81 1012.8
20260905155914 68 340 6.1 9.6 0.00 0.00 0.00 81 1012.8
20260905155836 68 344 5.2 8.7 0.00 0.00 0.00 80 1012.8
20260905155644 68 310 3.5 8.7 0.00 0.00 0.00 82 1012.8
20260905155524 68 317 3.5 8.7 0.00 0.00 0.00 81 1012.7
20260905155429 68 351 2.6 8.7 0.00 0.00 0.00 82 1012.8
20260905155332 68 360 3.5 8.7 0.00 0.00 0.00 82 1012.8
20260905155253 68 313 4.3 8.7 0.00 0.00 0.00 80 1012.8
20260905155158 68 281 3.5 10.4 0.00 0.00 0.00 81 1012.7
20260905155059 68 324 3.5 10.4 0.00 0.00 0.00 81 1012.7
20260905155020 68 333 3.5 10.4 0.00 0.00 0.00 81 1012.7
20260905154902 68 311 3.5 10.4 0.00 0.00 0.00 81 1012.7
20260905154824 68 285 3.5 10.4 0.00 0.00 0.00 82 1012.7
20260905154628 68 355 4.3 10.4 0.00 0.00 0.00 81 1012.7
20260905154532 68 344 6.1 10.4 0.00 0.00 0.00 81 1012.7
20260905154436 68 340 7.0 10.4 0.00 0.00 0.00 80 1012.7
20260905154347 68 338 6.1 10.4 0.00 0.00 0.00 80 1012.8
20260905154308 68 337 6.1 10.4 0.00 0.00 0.00 80 1012.8
20260905154151 68 310 6.1 11.3 0.00 0.00 0.00 80 1012.7
20260905154111 68 327 5.2 11.3 0.00 0.00 0.00 80 1012.8
20260905153941 68 317 6.1 11.3 0.00 0.00 0.00 79 1012.8
20260905153832 68 341 7.0 11.3 0.00 0.00 0.00 79 1012.8
20260905153703 69 284 7.0 11.3 0.00 0.00 0.00 79 1012.7
20260905153624 69 342 7.0 11.3 0.00 0.00 0.00 79 1012.7
20260905153427 69 344 7.0 11.3 0.00 0.00 0.00 78 1012.7
20260905153332 69 331 5.2 11.3 0.00 0.00 0.00 78 1012.6
20260905153245 69 337 4.3 10.4 0.00 0.00 0.00 77 1012.6
20260905153145 69 340 6.1 10.4 0.00 0.00 0.00 78 1012.7
20260905153105 69 355 5.2 10.4 0.00 0.00 0.00 78 1012.7
20260905153012 69 342 4.3 10.4 0.00 0.00 0.00 78 1012.7
20260905152942 69 341 3.5 9.6 0.00 0.00 0.00 78 1012.6
20260905152812 69 339 5.2 11.3 0.00 0.00 0.00 76 1012.6
20260905152728 69 340 6.1 11.3 0.00 0.00 0.00 75 1012.6
20260905152557 70 331 5.2 11.3 0.00 0.00 0.00 76 1012.6
20260905152518 70 340 4.3 11.3 0.00 0.00 0.00 76 1012.6
20260905152341 70 355 5.2 11.3 0.00 0.00 0.00 77 1012.6
20260905152247 70 293 5.2 11.3 0.00 0.00 0.00 76 1012.6
20260905152131 70 328 7.8 11.3 0.00 0.00 0.00 77 1012.6
20260905152052 70 329 7.8 11.3 0.00 0.00 0.00 76 1012.6
20260905151924 69 346 5.2 10.4 0.00 0.00 0.00 77 1012.6
20260905151846 69 343 5.2 10.4 0.00 0.00 0.00 75 1012.6
20260905151746 69 277 5.2 10.4 0.00 0.00 0.00 76 1012.6
20260905151649 69 311 7.0 10.4 0.00 0.00 0.00 78 1012.6
20260905151549 69 336 7.0 10.4 0.00 0.00 0.00 77 1012.6
20260905151510 69 319 6.1 10.4 0.00 0.00 0.00 78 1012.6
20260905151416 69 9 6.1 10.4 0.00 0.00 0.00 78 1012.6
20260905151337 69 348 6.1 10.4 0.00 0.00 0.00 80 1012.6
20260905151213 69 343 4.3 7.8 0.00 0.00 0.00 80 1012.6
20260905151127 69 316 3.5 9.6 0.00 0.00 0.00 80 1012.6
20260905150936 68 338 4.3 9.6 0.00 0.00 0.00 79 1012.6
20260905150850 68 336 5.2 9.6 0.00 0.00 0.00 79 1012.6
20260905150720 68 316 3.5 9.6 0.00 0.00 0.00 80 1012.7
20260905150620 68 12 3.5 9.6 0.00 0.00 0.00 80 1012.6
20260905150442 68 16 4.3 10.4 0.00 0.00 0.00 80 1012.6
20260905150405 68 345 5.2 10.4 0.00 0.00 0.00 80 1012.7
20260905150134 68 348 4.3 10.4 0.00 0.00 0.00 80 1012.6
20260905150027 68 355 5.2 10.4 0.00 0.00 0.00 79 1012.6
20260905145954 68 351 4.3 10.4 0.00 0.00 0.00 80 1012.6
20260905145857 68 355 4.3 10.4 0.00 0.00 0.00 79 1012.6
20260905145819 68 360 6.1 10.4 0.00 0.00 0.00 78 1012.6
20260905145625 68 340 7.0 10.4 0.00 0.00 0.00 79 1012.5
20260905145525 68 360 6.1 9.6 0.00 0.00 0.00 80 1012.6
20260905145429 68 355 5.2 9.6 0.00 0.00 0.00 80 1012.5
20260905145350 68 349 4.3 9.6 0.00 0.00 0.00 80 1012.5
20260905145313 68 355 5.2 9.6 0.00 0.00 0.00 80 1012.6
20260905145215 68 342 6.1 10.4 0.00 0.00 0.00 80 1012.6
20260905145136 68 313 6.1 10.4 0.00 0.00 0.00 80 1012.6
20260905145005 68 336 6.1 10.4 0.00 0.00 0.00 79 1012.5
20260905144912 68 336 5.2 10.4 0.00 0.00 0.00 79 1012.6
20260905144754 69 346 4.3 10.4 0.00 0.00 0.00 79 1012.5
20260905144635 69 355 5.2 10.4 0.00 0.00 0.00 78 1012.6
20260905144538 69 331 7.0 10.4 0.00 0.00 0.00 78 1012.6
20260905144438 69 324 7.0 10.4 0.00 0.00 0.00 79 1012.6
20260905144310 69 350 6.1 10.4 0.00 0.00 0.00 79 1012.6
20260905144223 69 300 6.1 10.4 0.00 0.00 0.00 78 1012.6
20260905144034 69 344 5.2 10.4 0.00 0.00 0.00 80 1012.6
20260905143949 69 355 6.1 10.4 0.00 0.00 0.00 78 1012.5
20260905143757 69 9 7.0 10.4 0.00 0.00 0.00 80 1012.6
20260905143720 69 342 5.2 10.4 0.00 0.00 0.00 80 1012.6
20260905143638 69 348 5.2 10.4 0.00 0.00 0.00 81 1012.6
20260905143507 69 330 6.1 10.4 0.00 0.00 0.00 81 1012.5
20260905143409 68 336 6.1 10.4 0.00 0.00 0.00 81 1012.5
20260905143332 68 335 6.1 10.4 0.00 0.00 0.00 80 1012.5
20260905143213 68 333 4.3 8.7 0.00 0.00 0.00 81 1012.5
20260905143135 68 339 4.3 7.8 0.00 0.00 0.00 81 1012.5
20260905143005 68 317 4.3 7.8 0.00 0.00 0.00 81 1012.5
20260905142919 68 323 4.3 7.8 0.00 0.00 0.00 83 1012.5
20260905142727 68 343 0.9 7.8 0.00 0.00 0.00 82 1012.5
20260905142623 68 355 0.0 0.0 0.00 0.00 0.00 83 1012.5
20260905142545 68 336 0.0 0.0 0.00 0.00 0.00 84 1012.5
20260905142432 68 320 0.0 0.0 0.00 0.00 0.00 83 1012.4
20260905142332 67 360 0.0 0.0 0.00 0.00 0.00 83 1012.5
20260905142134 67 332 0.0 0.0 0.00 0.00 0.00 82 1012.4
20260905142057 67 325 0.0 0.0 0.00 0.00 0.00 83 1012.5
20260905142001 67 350 0.0 0.0 0.00 0.00 0.00 84 1012.5
20260905141923 67 326 0.0 0.0 0.00 0.00 0.00 84 1012.5
20260905141726 67 318 0.0 0.0 0.00 0.00 0.00 84 1012.5
20260905141627 67 329 0.0 0.0 0.00 0.00 0.00 83 1012.5
20260905141531 67 311 0.0 0.0 0.00 0.00 0.00 83 1012.5
20260905141456 67 333 0.0 0.0 0.00 0.00 0.00 83 1012.5
20260905141329 67 351 0.0 0.0 0.00 0.00 0.00 85 1012.5
20260905141231 67 325 0.0 0.0 0.00 0.00 0.00 85 1012.5
20260905141155 67 333 0.0 0.0 0.00 0.00 0.00 85 1012.5
20260905141038 67 313 0.0 0.0 0.00 0.00 0.00 84 1012.5
20260905140932 67 325 0.0 0.0 0.00 0.00 0.00 84 1012.5
20260905140826 67 293 0.0 0.0 0.00 0.00 0.00 85 1012.5
20260905140730 67 341 0.0 0.0 0.00 0.00 0.00 85 1012.4
20260905140653 67 335 0.0 0.0 0.00 0.00 0.00 84 1012.4
20260905140557 67 332 0.0 0.0 0.00 0.00 0.00 84 1012.4
20260905140520 67 343 0.0 0.0 0.00 0.00 0.00 84 1012.4
20260905140324 67 342 0.0 0.0 0.00 0.00 0.00 83 1012.4
20260905140224 67 333 0.0 0.0 0.00 0.00 0.00 84 1012.4
20260905140127 67 360 0.0 0.0 0.00 0.00 0.00 84 1012.4
20260905140049 67 355 0.0 0.0 0.00 0.00 0.00 85 1012.5
20260905140012 67 345 0.0 0.0 0.00 0.00 0.00 84 1012.4
20260905135855 67 355 0.0 0.0 0.00 0.00 0.00 86 1012.4
20260905135817 67 330 0.0 0.0 0.00 0.00 0.00 86 1012.4
20260905135625 67 340 0.0 0.0 0.00 0.00 0.00 87 1012.4
20260905135546 67 348 0.0 0.0 0.00 0.00 0.00 87 1012.5
20260905135509 67 321 0.0 0.0 0.00 0.00 0.00 87 1012.5
20260905135349 66 355 0.0 0.0 0.00 0.00 0.00 87 1012.5
20260905135243 66 340 0.0 0.0 0.00 0.00 0.00 87 1012.5
20260905135204 66 355 0.0 0.0 0.00 0.00 0.00 87 1012.5
20260905135107 66 326 0.0 0.0 0.00 0.00 0.00 87 1012.5
20260905135029 66 339 0.0 0.0 0.00 0.00 0.00 87 1012.5
20260905134832 66 331 0.0 0.0 0.00 0.00 0.00 88 1012.5
20260905134737 66 342 0.0 0.0 0.00 0.00 0.00 87 1012.5
20260905134641 66 319 0.0 0.0 0.00 0.00 0.00 87 1012.5
20260905134604 66 338 0.0 0.0 0.00 0.00 0.00 88 1012.5
20260905134411 65 333 0.0 0.0 0.00 0.00 0.00 88 1012.4
20260905134305 65 331 0.0 0.0 0.00 0.00 0.00 87 1012.5
20260905134114 65 344 0.0 0.0 0.00 0.00 0.00 87 1012.5
20260905134014 65 322 0.0 0.0 0.00 0.00 0.00 87 1012.5
20260905133846 65 346 0.0 0.0 0.00 0.00 0.00 87 1012.5
20260905133739 66 315 0.0 0.0 0.00 0.00 0.00 87 1012.5
20260905133622 66 338 0.0 0.0 0.00 0.00 0.00 88 1012.4
20260905133544 65 317 0.0 0.0 0.00 0.00 0.00 88 1012.5
20260905133509 65 330 0.0 0.0 0.00 0.00 0.00 88 1012.5
20260905133352 65 346 0.0 0.0 0.00 0.00 0.00 88 1012.5
20260905133253 65 343 0.0 0.0 0.00 0.00 0.00 89 1012.5
20260905133123 65 303 0.0 0.0 0.00 0.00 0.00 88 1012.4
20260905133015 65 343 0.0 0.0 0.00 0.00 0.00 88 1012.4
20260905132826 65 342 0.0 0.0 0.00 0.00 0.00 88 1012.4
20260905132742 65 5 0.0 0.0 0.00 0.00 0.00 89 1012.4
20260905132611 65 321 0.0 0.0 0.00 0.00 0.00 89 1012.3
20260905132531 65 355 0.0 0.0 0.00 0.00 0.00 89 1012.3
20260905132402 65 346 0.0 0.0 0.00 0.00 0.00 89 1012.3
20260905132234 65 334 0.0 0.0 0.00 0.00 0.00 89 1012.3
20260905132123 65 315 0.0 0.0 0.00 0.00 0.00 89 1012.3
20260905132044 65 346 0.0 0.0 0.00 0.00 0.00 89 1012.3
20260905132005 65 339 0.0 0.0 0.00 0.00 0.00 88 1012.3
20260905131911 65 315 0.0 0.0 0.00 0.00 0.00 88 1012.3
20260905131810 65 313 0.0 0.0 0.00 0.00 0.00 89 1012.3
20260905131619 65 344 0.0 0.0 0.00 0.00 0.00 89 1012.3
20260905131533 65 344 0.0 0.0 0.00 0.00 0.00 89 1012.3
20260905131404 65 344 0.0 0.0 0.00 0.00 0.00 89 1012.3
20260905131314 65 331 0.0 0.0 0.00 0.00 0.00 89 1012.3
20260905131138 65 350 0.0 0.0 0.00 0.00 0.00 88 1012.3
20260905131025 65 292 0.0 0.0 0.00 0.00 0.00 88 1012.3
20260905130927 65 336 0.0 0.0 0.00 0.00 0.00 90 1012.3
20260905130846 65 317 0.0 0.0 0.00 0.00 0.00 89 1012.2
20260905130716 65 340 0.0 0.0 0.00 0.00 0.00 89 1012.2
20260905130631 65 311 0.0 0.0 0.00 0.00 0.00 90 1012.2
20260905130502 65 17 0.0 0.0 0.00 0.00 0.00 90 1012.1
20260905130422 65 324 0.0 0.0 0.00 0.00 0.00 90 1012.1
20260905130226 65 322 0.0 0.0 0.00 0.00 0.00 90 1012.1
20260905130147 65 331 0.0 0.0 0.00 0.00 0.00 89 1012.1
20260905130050 65 327 0.0 0.0 0.00 0.00 0.00 91 1012.1
20260905125950 65 343 0.0 0.0 0.00 0.00 0.00 91 1012.1
20260905125911 65 344 0.0 0.0 0.00 0.00 0.00 90 1012.2
20260905125818 65 346 0.0 0.0 0.00 0.00 0.00 91 1012.1
20260905125719 65 344 0.0 0.0 0.00 0.00 0.00 91 1012.1
20260905125548 65 319 0.0 0.0 0.00 0.00 0.00 91 1012.1
20260905125423 65 313 0.0 0.0 0.00 0.00 0.00 90 1012.1
20260905125326 65 327 0.0 0.0 0.00 0.00 0.00 91 1012.1
20260905125227 64 311 0.0 0.0 0.00 0.00 0.00 91 1012.1
20260905125004 64 347 0.0 0.0 0.00 0.00 0.00 90 1012.0
20260905124927 64 331 0.0 0.0 0.00 0.00 0.00 91 1012.0
20260905124728 64 338 0.0 0.0 0.00 0.00 0.00 91 1012.0
20260905124651 64 344 0.0 0.0 0.00 0.00 0.00 92 1012.1
20260905124557 64 355 0.0 0.0 0.00 0.00 0.00 91 1012.1
20260905124518 64 329 0.0 0.0 0.00 0.00 0.00 91 1012.1
20260905124349 64 330 0.0 0.0 0.00 0.00 0.00 91 1012.1
20260905124305 64 327 0.0 0.0 0.00 0.00 0.00 91 1012.1
20260905124051 64 323 0.0 0.0 0.00 0.00 0.00 91 1012.1
20260905124012 64 313 0.0 0.0 0.00 0.00 0.00 91 1012.1
20260905123915 64 317 0.0 0.0 0.00 0.00 0.00 91 1012.1
20260905123836 64 355 0.0 0.0 0.00 0.00 0.00 91 1012.1
20260905123705 64 346 0.0 0.0 0.00 0.00 0.00 91 1012.2
20260905123619 64 336 0.0 0.0 0.00 0.00 0.00 91 1012.1
20260905123427 64 337 0.0 0.0 0.00 0.00 0.00 91 1012.2
20260905123328 64 319 0.0 0.0 0.00 0.00 0.00 91 1012.2
20260905123159 64 321 0.0 0.0 0.00 0.00 0.00 91 1012.2
20260905123037 64 349 0.0 0.0 0.00 0.00 0.00 91 1012.1
20260905122957 64 337 0.0 0.0 0.00 0.00 0.00 91 1012.1
20260905122911 64 5 0.0 0.0 0.00 0.00 0.00 91 1012.1
20260905122718 64 329 0.0 0.0 0.00 0.00 0.00 91 1012.0
20260905122642 64 311 0.0 0.0 0.00 0.00 0.00 91 1012.0
20260905122534 64 355 0.0 0.0 0.00 0.00 0.00 91 1012.0
20260905122406 64 346 0.0 0.0 0.00 0.00 0.00 91 1011.9
20260905122307 64 331 0.0 0.0 0.00 0.00 0.00 91 1011.9
20260905122149 64 360 0.0 0.0 0.00 0.00 0.00 91 1011.9
20260905122028 64 338 0.0 0.0 0.00 0.00 0.00 91 1011.9
20260905121932 64 328 0.0 0.0 0.00 0.00 0.00 91 1011.9
20260905121839 64 5 0.0 0.0 0.00 0.00 0.00 91 1011.9
20260905121759 64 342 0.0 0.0 0.00 0.00 0.00 91 1011.9
20260905121702 64 351 0.0 0.0 0.00 0.00 0.00 91 1011.9
20260905121544 64 348 0.0 0.0 0.00 0.00 0.00 91 1011.9
20260905121449 64 340 0.0 0.0 0.00 0.00 0.00 91 1011.9
20260905121349 64 350 0.0 0.0 0.00 0.00 0.00 91 1011.9
20260905121132 64 340 0.0 0.0 0.00 0.00 0.00 91 1011.9
20260905121035 64 337 0.0 0.0 0.00 0.00 0.00 91 1011.9
20260905120923 64 332 0.0 0.0 0.00 0.00 0.00 91 1011.9
20260905120844 64 338 0.0 0.0 0.00 0.00 0.00 91 1011.9
20260905120725 64 328 0.0 0.0 0.00 0.00 0.00 91 1011.9
20260905120648 64 329 0.0 0.0 0.00 0.00 0.00 91 1011.8
20260905120456 64 355 0.0 0.0 0.00 0.00 0.00 91 1011.8
20260905120350 64 333 0.0 0.0 0.00 0.00 0.00 91 1011.8
20260905120158 64 24 0.0 0.0 0.00 0.00 0.00 91 1011.8
20260905120121 64 355 0.0 0.0 0.00 0.00 0.00 91 1011.8
20260905120034 64 355 0.0 0.0 0.00 0.00 0.00 91 1011.8
20260905115905 64 340 0.0 0.0 0.00 0.00 0.00 91 1011.8
20260905115826 64 339 0.0 0.0 0.00 0.00 0.00 91 1011.8
20260905115657 64 355 0.0 0.0 0.00 0.00 0.00 91 1011.8
20260905115611 64 343 0.0 0.0 0.00 0.00 0.00 91 1011.8
20260905115437 63 9 0.0 0.0 0.00 0.00 0.00 91 1011.8
20260905115334 63 336 0.0 0.0 0.00 0.00 0.00 91 1011.8
20260905115229 63 344 0.0 0.0 0.00 0.00 0.00 91 1011.8
20260905115150 63 17 0.0 0.0 0.00 0.00 0.00 91 1011.8
20260905115111 63 334 0.0 0.0 0.00 0.00 0.00 92 1011.8
20260905115014 63 340 0.0 0.0 0.00 0.00 0.00 91 1011.8
20260905114936 63 340 0.0 0.0 0.00 0.00 0.00 92 1011.8
20260905114807 63 338 0.0 0.0 0.00 0.00 0.00 92 1011.8
20260905114719 63 360 0.0 0.0 0.00 0.00 0.00 92 1011.7
20260905114423 63 360 0.0 0.0 0.00 0.00 0.00 92 1011.7
20260905114336 63 5 0.0 0.0 0.00 0.00 0.00 92 1011.7
20260905114135 63 342 0.0 0.0 0.00 0.00 0.00 92 1011.7
20260905114030 63 336 0.0 0.0 0.00 0.00 0.00 92 1011.7
20260905113952 63 355 0.0 1.7 0.00 0.00 0.00 92 1011.7
20260905113915 63 348 0.0 5.2 0.00 0.00 0.00 92 1011.7
20260905113830 63 355 0.0 5.2 0.00 0.00 0.00 92 1011.7
20260905113659 63 339 0.0 5.2 0.00 0.00 0.00 92 1011.7
20260905113620 63 329 0.0 5.2 0.00 0.00 0.00 93 1011.7
20260905113426 63 333 0.0 5.2 0.00 0.00 0.00 92 1011.8
20260905113351 63 333 0.0 5.2 0.00 0.00 0.00 92 1011.7
20260905113236 63 305 0.9 5.2 0.00 0.00 0.00 93 1011.8
20260905113156 63 340 2.6 5.2 0.00 0.00 0.00 93 1011.7
20260905113007 63 324 3.5 5.2 0.00 0.00 0.00 93 1011.7
20260905112841 63 341 2.6 5.2 0.00 0.00 0.00 93 1011.7
20260905112723 63 336 3.5 5.2 0.00 0.00 0.00 93 1011.7
20260905112645 63 331 3.5 5.2 0.00 0.00 0.00 93 1011.7
20260905112516 63 348 2.6 5.2 0.00 0.00 0.00 93 1011.6
20260905112431 63 351 3.5 5.2 0.00 0.00 0.00 93 1011.6
20260905112301 63 322 2.6 5.2 0.00 0.00 0.00 93 1011.7
20260905112226 63 324 0.9 2.6 0.00 0.00 0.00 93 1011.7
20260905112031 63 333 0.0 0.0 0.00 0.00 0.00 93 1011.6
20260905111952 63 333 0.0 0.0 0.00 0.00 0.00 93 1011.6
20260905111855 63 342 0.0 0.0 0.00 0.00 0.00 93 1011.6
20260905111755 63 342 0.0 0.0 0.00 0.00 0.00 93 1011.6
20260905111716 63 350 0.0 0.0 0.00 0.00 0.00 93 1011.6
20260905111620 63 344 0.0 0.0 0.00 0.00 0.00 93 1011.6
20260905111521 63 344 0.0 0.0 0.00 0.00 0.00 93 1011.6
20260905111442 63 344 0.0 0.0 0.00 0.00 0.00 93 1011.6
20260905111304 63 345 0.0 0.0 0.00 0.00 0.00 93 1011.6
20260905111226 63 330 0.0 0.0 0.00 0.00 0.00 93 1011.6
20260905111040 63 348 0.0 0.0 0.00 0.00 0.00 93 1011.6
20260905110934 63 339 0.0 0.0 0.00 0.00 0.00 93 1011.6
20260905110856 63 347 0.0 0.0 0.00 0.00 0.00 93 1011.6
20260905110748 63 355 0.0 0.0 0.00 0.00 0.00 93 1011.6
20260905110629 63 5 0.0 0.0 0.00 0.00 0.00 93 1011.5
20260905110533 63 338 0.0 0.0 0.00 0.00 0.00 93 1011.5
20260905110432 63 338 0.0 0.0 0.00 0.00 0.00 93 1011.5
20260905110303 62 355 0.0 0.0 0.00 0.00 0.00 94 1011.5
20260905110155 62 355 0.0 0.0 0.00 0.00 0.00 94 1011.4
20260905110004 62 355 0.0 0.0 0.00 0.00 0.00 94 1011.4
20260905105925 62 355 0.0 0.0 0.00 0.00 0.00 94 1011.4
20260905105733 62 342 0.0 0.0 0.00 0.00 0.00 94 1011.4
20260905105654 62 342 0.0 0.0 0.00 0.00 0.00 94 1011.4
20260905105558 62 355 0.0 0.0 0.00 0.00 0.00 94 1011.4
20260905105440 62 360 0.0 0.0 0.00 0.00 0.00 94 1011.4
20260905105325 62 348 0.0 0.0 0.00 0.00 0.00 94 1011.4
20260905105247 62 343 0.0 0.0 0.00 0.00 0.00 94 1011.4
20260905105208 62 15 0.0 0.0 0.00 0.00 0.00 94 1011.4
20260905105113 62 22 0.0 0.0 0.00 0.00 0.00 95 1011.4
20260905105033 62 335 0.0 0.0 0.00 0.00 0.00 95 1011.4
20260905104904 62 355 0.0 0.0 0.00 0.00 0.00 95 1011.3
20260905104824 62 355 0.0 0.0 0.00 0.00 0.00 95 1011.3
20260905104634 62 355 0.0 0.0 0.00 0.00 0.00 95 1011.2
20260905104548 62 355 0.0 0.0 0.00 0.00 0.00 95 1011.3
20260905104419 62 355 0.0 0.0 0.00 0.00 0.00 95 1011.3
20260905104341 62 355 0.0 0.0 0.00 0.00 0.00 95 1011.3
20260905104211 62 355 0.0 0.0 0.00 0.00 0.00 95 1011.3
20260905104115 62 355 0.0 0.0 0.00 0.00 0.00 95 1011.3
20260905104037 62 344 0.0 0.0 0.00 0.00 0.00 95 1011.3
20260905103845 62 355 0.0 0.0 0.00 0.00 0.00 95 1011.3
20260905103740 62 355 0.0 0.0 0.00 0.00 0.00 95 1011.3
20260905103627 62 355 0.0 0.0 0.00 0.00 0.00 96 1011.3
20260905103548 62 355 0.0 0.0 0.00 0.00 0.00 95 1011.3
20260905103512 62 355 0.0 0.0 0.00 0.00 0.00 96 1011.2
20260905103415 62 355 0.0 0.0 0.00 0.00 0.00 95 1011.2
20260905103337 62 355 0.0 0.0 0.00 0.00 0.00 95 1011.2
20260905103204 62 355 0.0 0.0 0.00 0.00 0.00 95 1011.3
20260905103119 62 355 0.0 0.0 0.00 0.00 0.00 95 1011.3
20260905102929 61 355 0.0 0.0 0.00 0.00 0.00 95 1011.3
20260905102840 61 350 0.0 0.0 0.00 0.00 0.00 95 1011.2
20260905102711 61 350 0.0 0.0 0.00 0.00 0.00 95 1011.2
20260905102632 61 5 0.0 0.0 0.00 0.00 0.00 95 1011.2
20260905102440 61 11 0.0 0.0 0.00 0.00 0.00 96 1011.2
20260905102340 61 11 0.0 0.0 0.00 0.00 0.00 96 1011.2
20260905102243 61 11 0.0 0.0 0.00 0.00 0.00 96 1011.2
20260905102204 61 11 0.0 0.0 0.00 0.00 0.00 96 1011.2
20260905102014 61 11 0.0 0.0 0.00 0.00 0.00 96 1011.2
20260905101928 61 11 0.0 0.0 0.00 0.00 0.00 96 1011.2
20260905101757 61 11 0.0 0.0 0.00 0.00 0.00 96 1011.2
20260905101721 61 11 0.0 0.0 0.00 0.00 0.00 96 1011.2
20260905101636 61 11 0.0 0.0 0.00 0.00 0.00 96 1011.2
20260905101505 61 11 0.0 0.0 0.00 0.00 0.00 96 1011.3
20260905101426 61 11 0.0 0.0 0.00 0.00 0.00 96 1011.2
20260905101311 61 11 0.0 0.0 0.00 0.00 0.00 95 1011.2
20260905101246 61 11 0.0 0.0 0.00 0.00 0.00 95 1011.2
20260905101038 61 11 0.0 0.0 0.00 0.00 0.00 95 1011.2
20260905100933 61 11 0.0 0.0 0.00 0.00 0.00 95 1011.2
20260905100854 61 11 0.0 0.0 0.00 0.00 0.00 95 1011.2
20260905100758 61 11 0.0 0.0 0.00 0.00 0.00 95 1011.3
20260905100638 61 11 0.0 0.0 0.00 0.00 0.00 95 1011.2
20260905100543 61 11 0.0 0.0 0.00 0.00 0.00 95 1011.2
20260905100503 61 11 0.0 0.0 0.00 0.00 0.00 95 1011.2
20260905100313 61 11 0.0 0.0 0.00 0.00 0.00 95 1011.2
20260905100227 61 11 0.0 0.0 0.00 0.00 0.00 95 1011.2
20260905100002 61 11 0.0 0.0 0.00 0.00 0.00 95 1011.2
20260905095755 61 11 0.0 0.0 0.00 0.00 0.00 96 1011.1
20260905095603 61 11 0.0 0.0 0.00 0.00 0.00 96 1011.2
20260905095524 61 11 0.0 0.0 0.00 0.00 0.00 96 1011.2
20260905095329 61 11 0.0 0.0 0.00 0.00 0.00 96 1011.2
20260905095250 60 11 0.0 0.0 0.00 0.00 0.00 96 1011.2
20260905095134 60 11 0.0 0.0 0.00 0.00 0.00 96 1011.2
20260905095054 60 11 0.0 0.0 0.00 0.00 0.00 95 1011.1
20260905095016 60 11 0.0 0.0 0.00 0.00 0.00 95 1011.1
20260905094921 60 11 0.0 0.0 0.00 0.00 0.00 96 1011.1
20260905094846 60 11 0.0 0.0 0.00 0.00 0.00 96 1011.1
20260905094715 60 11 0.0 0.0 0.00 0.00 0.00 95 1011.1
20260905094630 60 11 0.0 0.0 0.00 0.00 0.00 96 1011.1
20260905094500 60 11 0.0 0.0 0.00 0.00 0.00 95 1011.1
20260905094423 60 11 0.0 0.0 0.00 0.00 0.00 95 1011.1
20260905094135 60 11 0.0 0.0 0.00 0.00 0.00 95 1011.1
20260905094057 60 11 0.0 0.0 0.00 0.00 0.00 95 1011.1
20260905094001 60 11 0.0 0.0 0.00 0.00 0.00 95 1011.1
20260905093921 60 11 0.0 0.0 0.00 0.00 0.00 95 1011.1
20260905093751 60 11 0.0 0.0 0.00 0.00 0.00 95 1011.2
20260905093645 60 11 0.0 0.0 0.00 0.00 0.00 95 1011.2
20260905093515 60 11 0.0 0.0 0.00 0.00 0.00 95 1011.1
20260905093420 60 11 0.0 0.0 0.00 0.00 0.00 95 1011.1
20260905093249 60 11 0.0 0.0 0.00 0.00 0.00 95 1011.1
20260905093215 60 11 0.0 0.0 0.00 0.00 0.00 95 1011.1
20260905093026 60 11 0.0 0.0 0.00 0.00 0.00 95 1011.1
20260905092941 60 11 0.0 0.0 0.00 0.00 0.00 95 1011.1
20260905092842 60 11 0.0 0.0 0.00 0.00 0.00 95 1011.1
20260905092733 60 11 0.0 0.0 0.00 0.00 0.00 95 1011.1
20260905092633 60 11 0.0 0.0 0.00 0.00 0.00 95 1011.1
20260905092437 60 11 0.0 0.0 0.00 0.00 0.00 95 1011.1
20260905092342 60 11 0.0 0.0 0.00 0.00 0.00 95 1011.0
20260905092246 60 11 0.0 0.0 0.00 0.00 0.00 95 1011.1
20260905092146 60 11 0.0 0.0 0.00 0.00 0.00 95 1011.0
20260905092109 60 11 0.0 0.0 0.00 0.00 0.00 95 1011.1
20260905092014 60 11 0.0 0.0 0.00 0.00 0.00 95 1011.1
20260905091936 60 11 0.0 0.0 0.00 0.00 0.00 95 1011.1
20260905091805 60 11 0.0 0.0 0.00 0.00 0.00 95 1011.1
20260905091638 60 11 0.0 0.0 0.00 0.00 0.00 95 1011.0
20260905091523 60 11 0.0 0.0 0.00 0.00 0.00 95 1011.1
20260905091425 60 11 0.0 0.0 0.00 0.00 0.00 95 1011.1
20260905091352 60 11 0.0 0.0 0.00 0.00 0.00 95 1011.1
20260905091237 60 11 0.0 0.0 0.00 0.00 0.00 95 1011.1
20260905091113 60 11 0.0 0.0 0.00 0.00 0.00 95 1011.1
20260905091044 60 11 0.0 0.0 0.00 0.00 0.00 95 1011.0
20260905090940 60 11 0.0 0.0 0.00 0.00 0.00 95 1011.1
20260905090902 60 11 0.0 0.0 0.00 0.00 0.00 95 1011.1
20260905090807 60 11 0.0 0.0 0.00 0.00 0.00 95 1011.1
20260905090728 60 11 0.0 0.0 0.00 0.00 0.00 95 1011.1
20260905090536 60 11 0.0 0.0 0.00 0.00 0.00 96 1011.1
20260905090437 60 11 0.0 0.0 0.00 0.00 0.00 96 1011.1
20260905090341 60 11 0.0 0.0 0.00 0.00 0.00 95 1011.1
20260905090242 60 11 0.0 0.0 0.00 0.00 0.00 95 1011.1
20260905090113 60 11 0.0 0.0 0.00 0.00 0.00 95 1011.1
20260905090027 60 11 0.0 0.0 0.00 0.00 0.00 95 1011.1
20260905085857 60 11 0.0 0.0 0.00 0.00 0.00 95 1011.1
20260905085818 60 11 0.0 0.0 0.00 0.00 0.00 95 1011.1
20260905085641 60 11 0.0 0.0 0.00 0.00 0.00 95 1011.0
20260905085542 60 11 0.0 0.0 0.00 0.00 0.00 95 1011.0
20260905085430 60 11 0.0 0.0 0.00 0.00 0.00 95 1011.0
20260905085351 60 11 0.0 0.0 0.00 0.00 0.00 95 1011.0
20260905085251 60 11 0.0 0.0 0.00 0.00 0.00 95 1011.0
20260905085154 59 11 0.0 0.0 0.00 0.00 0.00 95 1011.0
20260905085115 59 11 0.0 0.0 0.00 0.00 0.00 95 1011.0
20260905084947 59 11 0.0 0.0 0.00 0.00 0.00 95 1011.0
20260905084842 59 11 0.0 0.0 0.00 0.00 0.00 95 1011.0
20260905084725 59 11 0.0 0.0 0.00 0.00 0.00 95 1011.0
20260905084645 59 11 0.0 0.0 0.00 0.00 0.00 95 1010.9
20260905084516 59 11 0.0 0.0 0.00 0.00 0.00 95 1011.0
20260905084431 59 11 0.0 0.0 0.00 0.00 0.00 95 1011.0
20260905084306 59 11 0.0 0.0 0.00 0.00 0.00 95 1010.9
20260905084228 59 11 0.0 0.0 0.00 0.00 0.00 95 1010.9
20260905084032 59 11 0.0 0.0 0.00 0.00 0.00 95 1010.9
20260905083952 59 11 0.0 0.0 0.00 0.00 0.00 95 1010.9
20260905083855 59 11 0.0 0.0 0.00 0.00 0.00 95 1010.9
20260905083817 59 11 0.0 0.0 0.00 0.00 0.00 95 1010.9
20260905083538 59 11 0.0 0.0 0.00 0.00 0.00 95 1010.9
20260905083431 59 11 0.0 0.0 0.00 0.00 0.00 95 1010.9
20260905083334 59 11 0.0 0.0 0.00 0.00 0.00 95 1010.9
20260905083239 59 11 0.0 0.0 0.00 0.00 0.00 95 1010.9
20260905083200 59 11 0.0 0.0 0.00 0.00 0.00 95 1010.9
20260905083105 59 11 0.0 0.0 0.00 0.00 0.00 95 1010.9
20260905083004 59 11 0.0 0.0 0.00 0.00 0.00 95 1010.9
20260905082835 59 11 0.0 0.0 0.00 0.00 0.00 95 1010.9
20260905082730 59 11 0.0 0.0 0.00 0.00 0.00 95 1010.9
20260905082540 59 11 0.0 0.0 0.00 0.00 0.00 95 1010.9
20260905082429 59 11 0.0 0.0 0.00 0.00 0.00 95 1010.9
20260905082309 59 11 0.0 0.0 0.00 0.00 0.00 95 1010.9
20260905082222 59 11 0.0 0.0 0.00 0.00 0.00 95 1010.9
20260905082052 59 11 0.0 0.0 0.00 0.00 0.00 95 1010.9
20260905081937 58 11 0.0 0.0 0.00 0.00 0.00 95 1010.9
20260905081839 58 11 0.0 0.0 0.00 0.00 0.00 95 1010.9
20260905081801 58 11 0.0 0.0 0.00 0.00 0.00 95 1010.9
20260905081640 58 11 0.0 0.0 0.00 0.00 0.00 95 1010.9
20260905081534 58 11 0.0 0.0 0.00 0.00 0.00 95 1010.9
20260905081404 58 11 0.0 0.0 0.00 0.00 0.00 95 1010.9
20260905081326 58 11 0.0 0.0 0.00 0.00 0.00 95 1010.9
20260905081131 58 11 0.0 0.0 0.00 0.00 0.00 95 1010.9
20260905081053 58 11 0.0 0.0 0.00 0.00 0.00 95 1010.9
20260905080956 58 11 0.0 0.0 0.00 0.00 0.00 95 1010.9
20260905080918 58 11 0.0 0.0 0.00 0.00 0.00 95 1010.9
20260905080724 58 11 0.0 0.0 0.00 0.00 0.00 95 1010.9
20260905080626 58 11 0.0 0.0 0.00 0.00 0.00 95 1010.9
20260905080531 58 11 0.0 0.0 0.00 0.00 0.00 95 1010.9
20260905080452 58 11 0.0 0.0 0.00 0.00 0.00 95 1010.9
20260905080412 58 11 0.0 0.0 0.00 0.00 0.00 95 1010.9
20260905080316 58 11 0.0 0.0 0.00 0.00 0.00 95 1010.9
20260905080216 58 11 0.0 0.0 0.00 0.00 0.00 95 1010.9
20260905080027 58 11 0.0 0.0 0.00 0.00 0.00 95 1010.9
20260905075923 58 11 0.0 0.0 0.00 0.00 0.00 95 1010.9
20260905075848 58 11 0.0 0.0 0.00 0.00 0.00 95 1010.9
20260905075752 58 11 0.0 0.0 0.00 0.00 0.00 95 1010.9
20260905075634 58 11 0.0 0.0 0.00 0.00 0.00 95 1010.9
20260905075538 58 11 0.0 0.0 0.00 0.00 0.00 95 1010.9
20260905075459 58 11 0.0 0.0 0.00 0.00 0.00 95 1010.9
20260905075307 58 11 0.0 0.0 0.00 0.00 0.00 95 1010.9
20260905075140 58 11 0.0 0.0 0.00 0.00 0.00 95 1010.9
20260905075023 58 11 0.0 0.0 0.00 0.00 0.00 95 1010.8
20260905074946 58 11 0.0 0.0 0.00 0.00 0.00 95 1010.9
20260905074846 58 11 0.0 0.0 0.00 0.00 0.00 95 1010.8
20260905074732 58 11 0.0 0.0 0.00 0.00 0.00 95 1010.8
20260905074654 58 11 0.0 0.0 0.00 0.00 0.00 95 1010.9
20260905074455 58 11 0.0 0.0 0.00 0.00 0.00 95 1010.9
20260905074417 58 11 0.0 0.0 0.00 0.00 0.00 94 1010.9
20260905074228 58 11 0.0 0.0 0.00 0.00 0.00 94 1010.9
20260905074140 58 11 0.0 0.0 0.00 0.00 0.00 94 1010.9
20260905074042 58 11 0.0 0.0 0.00 0.00 0.00 94 1010.9
20260905073945 58 11 0.0 0.0 0.00 0.00 0.00 94 1010.9
20260905073906 58 11 0.0 0.0 0.00 0.00 0.00 94 1010.9
20260905073735 58 11 0.0 0.0 0.00 0.00 0.00 94 1010.8
20260905073634 58 11 0.0 0.0 0.00 0.00 0.00 94 1010.8
20260905073503 58 11 0.0 0.0 0.00 0.00 0.00 94 1010.8
20260905073325 58 11 0.0 0.0 0.00 0.00 0.00 94 1010.8
20260905073246 58 11 0.0 0.0 0.00 0.00 0.00 94 1010.8
20260905073146 58 11 0.0 0.0 0.00 0.00 0.00 94 1010.9
20260905073051 58 11 0.0 0.0 0.00 0.00 0.00 94 1010.9
20260905072950 58 11 0.0 0.0 0.00 0.00 0.00 94 1010.8
20260905072759 58 11 0.0 0.0 0.00 0.00 0.00 94 1010.8
20260905072714 58 11 0.0 0.0 0.00 0.00 0.00 94 1010.8
20260905072524 58 11 0.0 0.0 0.00 0.00 0.00 94 1010.8
20260905072440 58 11 0.0 0.0 0.00 0.00 0.00 94 1010.8
20260905072313 58 11 0.0 0.0 0.00 0.00 0.00 94 1010.9
20260905072233 58 11 0.0 0.0 0.00 0.00 0.00 94 1010.9
20260905072105 58 11 0.0 0.0 0.00 0.00 0.00 94 1010.9
20260905072019 58 11 0.0 0.0 0.00 0.00 0.00 94 1010.9
20260905071849 58 11 0.0 0.0 0.00 0.00 0.00 94 1011.0
20260905071749 58 11 0.0 0.0 0.00 0.00 0.00 94 1010.9
20260905071622 58 11 0.0 0.0 0.00 0.00 0.00 94 1011.0
20260905071548 58 11 0.0 0.0 0.00 0.00 0.00 94 1011.0
20260905071509 58 11 0.0 0.0 0.00 0.00 0.00 94 1011.0
20260905071318 58 11 0.0 0.0 0.00 0.00 0.00 94 1011.0
20260905071231 58 11 0.0 0.0 0.00 0.00 0.00 94 1011.0
20260905071105 58 11 0.0 0.0 0.00 0.00 0.00 94 1011.0
20260905071026 58 11 0.0 0.0 0.00 0.00 0.00 94 1011.0
20260905070829 58 11 0.0 0.0 0.00 0.00 0.00 94 1011.1
20260905070725 58 11 0.0 0.0 0.00 0.00 0.00 94 1011.1
20260905070627 58 11 0.0 0.0 0.00 0.00 0.00 94 1011.1
20260905070542 58 11 0.0 0.0 0.00 0.00 0.00 94 1011.1
20260905070412 58 11 0.0 0.0 0.00 0.00 0.00 93 1011.1
20260905070335 58 11 0.0 0.0 0.00 0.00 0.00 93 1011.1
20260905070138 58 11 0.0 0.0 0.00 0.00 0.00 93 1011.1
20260905070044 59 11 0.0 0.0 0.00 0.00 0.00 93 1011.1
20260905065950 59 11 0.0 0.0 0.00 0.00 0.00 93 1011.1
20260905065830 59 11 0.0 0.0 0.00 0.00 0.00 93 1011.2
20260905065733 59 11 0.0 0.0 0.00 0.00 0.00 93 1011.1
20260905065654 59 11 0.0 0.0 0.00 0.00 0.00 93 1011.1
20260905065502 59 11 0.0 0.0 0.00 0.00 0.00 93 1011.2
20260905065416 59 11 0.0 0.0 0.00 0.00 0.00 93 1011.1
20260905065225 59 11 0.0 0.0 0.00 0.00 0.00 93 1011.2
20260905065140 59 11 0.0 0.0 0.00 0.00 0.00 93 1011.2
20260905065009 59 11 0.0 0.0 0.00 0.00 0.00 93 1011.2
20260905064935 59 11 0.0 0.0 0.00 0.00 0.00 93 1011.2
20260905064738 59 11 0.0 0.0 0.00 0.00 0.00 93 1011.2
20260905064659 59 11 0.0 0.0 0.00 0.00 0.00 94 1011.2
20260905064603 59 11 0.0 0.0 0.00 0.00 0.00 94 1011.2
20260905064524 59 11 0.0 0.0 0.00 0.00 0.00 93 1011.2
20260905064354 59 11 0.0 0.0 0.00 0.00 0.00 94 1011.1
20260905064248 59 11 0.0 0.0 0.00 0.00 0.00 94 1011.1
20260905064057 59 11 0.0 0.0 0.00 0.00 0.00 94 1011.1
20260905064017 59 11 0.0 0.0 0.00 0.00 0.00 94 1011.1
20260905063840 59 11 0.0 0.0 0.00 0.00 0.00 94 1011.1
20260905063800 59 11 0.0 0.0 0.00 0.00 0.00 94 1011.1
20260905063612 59 11 0.0 0.0 0.00 0.00 0.00 94 1011.1
20260905063526 60 11 0.0 0.0 0.00 0.00 0.00 94 1011.1
20260905063354 60 11 0.0 0.0 0.00 0.00 0.00 94 1011.0
20260905063253 60 11 0.0 0.0 0.00 0.00 0.00 94 1011.1
20260905063127 60 11 0.0 0.0 0.00 0.00 0.00 94 1011.1
20260905062957 60 11 0.0 0.0 0.00 0.00 0.00 94 1011.0
20260905062850 60 11 0.0 0.0 0.00 0.00 0.00 94 1011.0
20260905062640 60 11 0.0 0.0 0.00 0.00 0.00 93 1011.0
20260905062533 60 11 0.0 0.0 0.00 0.00 0.00 93 1011.0
20260905062422 60 11 0.0 0.0 0.00 0.00 0.00 93 1011.0
20260905062343 60 11 0.0 0.0 0.00 0.00 0.00 93 1011.0
20260905062306 60 11 0.0 0.0 0.00 0.00 0.00 93 1011.1
20260905062210 60 11 0.0 0.0 0.00 0.00 0.00 93 1011.0
20260905062131 60 11 0.0 0.0 0.00 0.00 0.00 93 1011.0
20260905062001 60 11 0.0 0.0 0.00 0.00 0.00 93 1011.1
20260905061853 60 11 0.0 0.0 0.00 0.00 0.00 93 1011.0
20260905061643 60 11 0.0 0.0 0.00 0.00 0.00 93 1011.0
20260905061557 60 11 0.0 0.0 0.00 0.00 0.00 93 1011.1
20260905061407 60 11 0.0 0.0 0.00 0.00 0.00 93 1011.1
20260905061329 60 11 0.0 0.0 0.00 0.00 0.00 93 1011.1
20260905061136 60 11 0.0 0.0 0.00 0.00 0.00 93 1011.1
20260905061037 60 11 0.0 0.0 0.00 0.00 0.00 93 1011.1
20260905060940 60 11 0.0 0.0 0.00 0.00 0.00 93 1011.1
20260905060818 60 11 0.0 0.0 0.00 0.00 0.00 93 1011.1
20260905060649 60 11 0.0 0.0 0.00 0.00 0.00 93 1011.1
20260905060604 60 11 0.0 0.0 0.00 0.00 0.00 93 1011.1
20260905060434 61 11 0.0 0.0 0.00 0.00 0.00 93 1011.1
20260905060336 61 11 0.0 0.0 0.00 0.00 0.00 93 1011.1
20260905060218 61 11 0.0 0.0 0.00 0.00 0.00 93 1011.1
20260905060140 61 11 0.0 0.0 0.00 0.00 0.00 93 1011.1
20260905060011 61 11 0.0 0.0 0.00 0.00 0.00 93 1011.1
20260905055925 61 11 0.0 0.0 0.00 0.00 0.00 94 1011.1
20260905055759 61 11 0.0 0.0 0.00 0.00 0.00 94 1011.1
20260905055721 61 11 0.0 0.0 0.00 0.00 0.00 94 1011.1
20260905055523 61 11 0.0 0.0 0.00 0.00 0.00 94 1011.0
20260905055426 61 11 0.0 0.0 0.00 0.00 0.00 93 1011.1
20260905055331 61 11 0.0 0.0 0.00 0.00 0.00 93 1011.1
20260905055252 61 11 0.0 0.0 0.00 0.00 0.00 93 1011.1
20260905055215 61 11 0.0 0.0 0.00 0.00 0.00 93 1011.0
20260905055117 61 11 0.0 0.0 0.00 0.00 0.00 94 1011.0
20260905055040 61 11 0.0 0.0 0.00 0.00 0.00 94 1011.0
20260905054909 61 11 0.0 0.0 0.00 0.00 0.00 94 1011.0
20260905054823 61 11 0.0 0.0 0.00 0.00 0.00 94 1011.0
20260905054657 61 11 0.0 0.0 0.00 0.00 0.00 94 1011.0
20260905054619 61 11 0.0 0.0 0.00 0.00 0.00 94 1011.1
20260905054448 61 11 0.0 0.0 0.00 0.00 0.00 94 1011.0
20260905054343 61 11 0.0 0.0 0.00 0.00 0.00 94 1011.0
20260905054304 61 11 0.0 0.0 0.00 0.00 0.00 94 1011.0
20260905054208 61 11 0.0 0.0 0.00 0.00 0.00 94 1011.0
20260905054107 61 11 0.0 0.0 0.00 0.00 0.00 94 1011.0
20260905054030 61 11 0.0 0.0 0.00 0.00 0.00 94 1011.0
20260905053921 61 11 0.0 0.0 0.00 0.00 0.00 94 1011.0
20260905053821 61 11 0.0 0.0 0.00 0.00 0.00 94 1011.0
20260905053627 61 11 0.0 0.0 0.00 0.00 0.00 94 1011.0
20260905053532 61 11 0.0 0.0 0.00 0.00 0.00 94 1011.0
20260905053435 61 11 0.0 0.0 0.00 0.00 0.00 94 1011.0
20260905053357 61 11 0.0 0.0 0.00 0.00 0.00 94 1011.0
20260905053319 61 11 0.0 0.0 0.00 0.00 0.00 94 1011.0
20260905053222 61 11 0.0 0.0 0.00 0.00 0.00 94 1011.0
20260905053123 61 11 0.0 0.0 0.00 0.00 0.00 94 1011.0
20260905052935 61 11 0.0 0.0 0.00 0.00 0.00 94 1011.0
20260905052828 61 11 0.0 0.0 0.00 0.00 0.00 94 1011.0
20260905052730 61 11 0.0 0.0 0.00 0.00 0.00 94 1011.0
20260905052636 61 11 0.0 0.0 0.00 0.00 0.00 94 1011.0
20260905052559 61 11 0.0 0.0 0.00 0.00 0.00 94 1011.0
20260905052423 61 11 0.0 0.0 0.00 0.00 0.00 94 1011.0
20260905052340 61 11 0.0 0.0 0.00 0.00 0.00 94 1011.0
20260905052240 61 11 0.0 0.0 0.00 0.00 0.00 94 1011.0
20260905052125 61 11 0.0 0.0 0.00 0.00 0.00 94 1011.1
20260905052046 61 11 0.0 0.0 0.00 0.00 0.00 94 1011.0
20260905051931 61 11 0.0 0.0 0.00 0.00 0.00 94 1011.1
20260905051852 61 11 0.0 0.0 0.00 0.00 0.00 94 1011.0
20260905051727 61 11 0.0 0.0 0.00 0.00 0.00 94 1011.1
20260905051648 61 11 0.0 0.0 0.00 0.00 0.00 94 1011.1
20260905051610 61 11 0.0 0.0 0.00 0.00 0.00 94 1011.1
20260905051513 61 11 0.0 0.0 0.00 0.00 0.00 94 1011.1
20260905051433 61 11 0.0 0.0 0.00 0.00 0.00 94 1011.1
20260905051305 61 11 0.0 0.0 0.00 0.00 0.00 94 1011.1
20260905051218 61 11 0.0 0.0 0.00 0.00 0.00 94 1011.1
20260905051050 61 11 0.0 0.0 0.00 0.00 0.00 94 1011.1
20260905050949 61 11 0.0 0.0 0.00 0.00 0.00 94 1011.2
20260905050834 61 11 0.0 0.0 0.00 0.00 0.00 94 1011.2
20260905050805 61 11 0.0 0.0 0.00 0.00 0.00 94 1011.2
20260905050709 61 11 0.0 0.0 0.00 0.00 0.00 94 1011.2
20260905050612 61 11 0.0 0.0 0.00 0.00 0.00 94 1011.2
20260905050533 61 11 0.0 0.0 0.00 0.00 0.00 94 1011.2
20260905050337 61 11 0.0 0.0 0.00 0.00 0.00 94 1011.2
20260905050239 61 11 0.0 0.0 0.00 0.00 0.00 94 1011.2
20260905050143 61 11 0.0 0.0 0.00 0.00 0.00 94 1011.2
20260905050105 61 11 0.0 0.0 0.00 0.00 0.00 94 1011.2
20260905045913 61 11 0.0 0.0 0.00 0.00 0.00 94 1011.2
20260905045830 61 11 0.0 0.0 0.00 0.00 0.00 94 1011.2
20260905045639 61 11 0.0 0.0 0.00 0.00 0.00 94 1011.2
20260905045606 61 11 0.0 0.0 0.00 0.00 0.00 94 1011.1
20260905045417 61 11 0.0 0.0 0.00 0.00 0.00 94 1011.2
20260905045339 61 11 0.0 0.0 0.00 0.00 0.00 94 1011.1
20260905045147 61 11 0.0 0.0 0.00 0.00 0.00 94 1011.2
20260905045024 61 11 0.0 0.0 0.00 0.00 0.00 94 1011.2
20260905044929 61 11 0.0 0.0 0.00 0.00 0.00 94 1011.2
20260905044849 61 11 0.0 0.0 0.00 0.00 0.00 94 1011.2
20260905044718 61 11 0.0 0.0 0.00 0.00 0.00 94 1011.2
20260905044632 61 11 0.0 0.0 0.00 0.00 0.00 94 1011.2
20260905044441 61 11 0.0 0.0 0.00 0.00 0.00 94 1011.2
20260905044341 61 11 0.0 0.0 0.00 0.00 0.00 94 1011.2
20260905044225 61 11 0.0 0.0 0.00 0.00 0.00 94 1011.2
20260905044147 61 11 0.0 0.0 0.00 0.00 0.00 94 1011.2
20260905044110 61 11 0.0 0.0 0.00 0.00 0.00 94 1011.2
20260905043955 61 11 0.0 0.0 0.00 0.00 0.00 94 1011.2
20260905043915 61 11 0.0 0.0 0.00 0.00 0.00 94 1011.2
20260905043745 61 11 0.0 0.0 0.00 0.00 0.00 93 1011.2
20260905043638 61 11 0.0 0.0 0.00 0.00 0.00 93 1011.2
20260905043508 61 11 0.0 0.0 0.00 0.00 0.00 93 1011.2
20260905043407 61 11 0.0 0.0 0.00 0.00 0.00 93 1011.2
20260905043309 61 11 0.0 0.0 0.00 0.00 0.00 93 1011.2
20260905043216 61 11 0.0 0.0 0.00 0.00 0.00 94 1011.2
20260905043137 61 11 0.0 0.0 0.00 0.00 0.00 94 1011.2
20260905043007 61 11 0.0 0.0 0.00 0.00 0.00 94 1011.2
20260905042920 61 11 0.0 0.0 0.00 0.00 0.00 94 1011.2
20260905042729 61 11 0.0 0.0 0.00 0.00 0.00 94 1011.2
20260905042643 61 11 0.0 0.0 0.00 0.00 0.00 94 1011.2
20260905042514 61 11 0.0 0.0 0.00 0.00 0.00 93 1011.1
20260905042436 61 11 0.0 0.0 0.00 0.00 0.00 93 1011.1
20260905042240 61 11 0.0 0.0 0.00 0.00 0.00 93 1011.2
20260905042201 61 11 0.0 0.0 0.00 0.00 0.00 93 1011.2
20260905042104 61 11 0.0 0.0 0.00 0.00 0.00 93 1011.2
20260905042009 61 11 0.0 0.0 0.00 0.00 0.00 93 1011.2
20260905041728 61 11 0.0 0.0 0.00 0.00 0.00 93 1011.2
20260905041622 61 11 0.0 0.0 0.00 0.00 0.00 93 1011.2
20260905041553 61 11 0.0 0.0 0.00 0.00 0.00 93 1011.3
20260905041457 61 11 0.0 0.0 0.00 0.00 0.00 93 1011.2
20260905041419 61 11 0.0 0.0 0.00 0.00 0.00 93 1011.2
20260905041248 61 11 0.0 0.0 0.00 0.00 0.00 93 1011.2
20260905041125 61 11 0.0 0.0 0.00 0.00 0.00 93 1011.2
20260905041030 61 11 0.0 0.0 0.00 0.00 0.00 93 1011.2
20260905040955 61 11 0.0 0.0 0.00 0.00 0.00 93 1011.2
20260905040804 61 11 0.0 0.0 0.00 0.00 0.00 93 1011.2
20260905040727 61 11 0.0 0.0 0.00 0.00 0.00 93 1011.2
20260905040548 61 11 0.0 0.0 0.00 0.00 0.00 93 1011.2
20260905040329 61 11 0.0 0.0 0.00 0.00 0.00 93 1011.2
20260905040230 61 11 0.0 0.0 0.00 0.00 0.00 93 1011.2
20260905040134 61 11 0.0 0.0 0.00 0.00 0.00 93 1011.2
20260905040036 61 11 0.0 0.0 0.00 0.00 0.00 93 1011.2
20260905035959 61 11 0.0 0.0 0.00 0.00 0.00 93 1011.4
20260905035826 61 11 0.0 0.0 0.00 0.00 0.00 93 1011.3
20260905035743 61 11 0.0 0.0 0.00 0.00 0.00 93 1011.4
20260905035703 61 11 0.0 0.0 0.00 0.00 0.00 93 1011.4
20260905035605 61 11 0.0 0.0 0.00 0.00 0.00 93 1011.3
20260905035520 61 11 0.0 0.0 0.00 0.00 0.00 93 1011.3
20260905035332 61 11 0.0 0.0 0.00 0.00 0.00 93 1011.3
20260905035247 61 11 0.0 0.0 0.00 0.00 0.00 93 1011.3
20260905035037 61 11 0.0 0.0 0.00 0.00 0.00 93 1011.3
20260905034952 61 11 0.0 0.0 0.00 0.00 0.00 92 1011.3
20260905034821 61 11 0.0 0.0 0.00 0.00 0.00 92 1011.3
20260905034747 61 11 0.0 0.0 0.00 0.00 0.00 92 1011.3
20260905034529 62 11 0.0 0.0 0.00 0.00 0.00 92 1011.3
20260905034450 62 11 0.0 0.0 0.00 0.00 0.00 92 1011.3
20260905034334 62 11 0.0 0.0 0.00 0.00 0.00 92 1011.3
20260905034257 62 11 0.0 0.0 0.00 0.00 0.00 92 1011.2
20260905034218 62 11 0.0 0.0 0.00 0.00 0.00 92 1011.3
20260905034121 62 11 0.0 0.0 0.00 0.00 0.00 92 1011.4
20260905034042 62 11 0.0 0.0 0.00 0.00 0.00 92 1011.4
20260905033914 62 11 0.0 0.0 0.00 0.00 0.00 92 1011.3
20260905033829 62 11 0.0 0.0 0.00 0.00 0.00 92 1011.3
20260905033642 62 11 0.0 0.0 0.00 0.00 0.00 92 1011.3
20260905033539 62 11 0.0 0.0 0.00 0.00 0.00 92 1011.2
20260905033423 62 11 0.0 0.0 0.00 0.00 0.00 93 1011.3
20260905033345 62 11 0.0 0.0 0.00 0.00 0.00 93 1011.2
20260905033215 62 11 0.0 0.0 0.00 0.00 0.00 93 1011.2
20260905033129 62 11 0.0 0.0 0.00 0.00 0.00 93 1011.2
20260905032959 62 11 0.0 0.0 0.00 0.00 0.00 93 1011.2
20260905032920 62 11 0.0 0.0 0.00 0.00 0.00 93 1011.1
20260905032725 62 11 0.0 0.0 0.00 0.00 0.00 92 1011.2
20260905032632 62 11 0.0 0.0 0.00 0.00 0.00 92 1011.1
20260905032536 62 11 0.0 0.0 0.00 0.00 0.00 92 1011.1
20260905032458 62 11 0.0 0.0 0.00 0.00 0.00 92 1011.2
20260905032306 62 11 0.0 0.0 0.00 0.00 0.00 92 1011.1
20260905032221 62 11 0.0 0.0 0.00 0.00 0.00 92 1011.1
20260905032032 62 11 0.0 0.0 0.00 0.00 0.00 92 1011.1
20260905031947 62 11 0.0 0.0 0.00 0.00 0.00 92 1011.1
20260905031817 62 11 0.0 0.0 0.00 0.00 0.00 92 1011.1
20260905031717 62 11 0.0 0.0 0.00 0.00 0.00 92 1011.1
20260905031620 62 11 0.0 0.0 0.00 0.00 0.00 92 1011.1
20260905031540 62 11 0.0 0.0 0.00 0.00 0.00 92 1011.1
20260905031336 62 11 0.0 0.0 0.00 0.00 0.00 92 1011.1
20260905031241 62 11 0.0 0.0 0.00 0.00 0.00 92 1011.1
20260905031202 62 11 0.0 0.0 0.00 0.00 0.00 92 1011.1
20260905031108 62 11 0.0 0.0 0.00 0.00 0.00 92 1011.1
20260905031040 62 11 0.0 0.0 0.00 0.00 0.00 92 1011.1
20260905030910 62 11 0.0 0.0 0.00 0.00 0.00 92 1011.1
20260905030824 62 11 0.0 0.0 0.00 0.00 0.00 92 1011.1
20260905030635 63 11 0.0 0.0 0.00 0.00 0.00 92 1011.2
20260905030550 62 11 0.0 0.0 0.00 0.00 0.00 92 1011.1
20260905030419 63 11 0.0 0.0 0.00 0.00 0.00 92 1011.2
20260905030341 63 11 0.0 0.0 0.00 0.00 0.00 92 1011.2
20260905030216 63 11 0.0 0.0 0.00 0.00 0.00 92 1011.2
20260905030128 63 11 0.0 0.0 0.00 0.00 0.00 92 1011.2
20260905025939 63 11 0.0 0.0 0.00 0.00 0.00 92 1011.3
20260905025854 63 11 0.0 0.0 0.00 0.00 0.00 92 1011.2
20260905025642 63 11 0.0 0.0 0.00 0.00 0.00 92 1011.2
20260905025537 63 11 0.0 0.0 0.00 0.00 0.00 91 1011.2
20260905025500 63 11 0.0 0.0 0.00 0.00 0.00 92 1011.2
20260905025405 63 11 0.0 0.0 0.00 0.00 0.00 92 1011.3
20260905025326 63 11 0.0 0.0 0.00 0.00 0.00 92 1011.3
20260905025134 63 11 0.0 0.0 0.00 0.00 0.00 92 1011.2
20260905025036 63 11 0.0 0.0 0.00 0.00 0.00 92 1011.2
20260905024939 63 11 0.0 0.0 0.00 0.00 0.00 92 1011.2
20260905024839 63 11 0.0 0.0 0.00 0.00 0.00 92 1011.2
20260905024708 63 11 0.0 0.0 0.00 0.00 0.00 92 1011.2
20260905024624 63 11 0.0 0.0 0.00 0.00 0.00 92 1011.2
20260905024433 63 11 0.0 0.0 0.00 0.00 0.00 92 1011.3
20260905024349 63 11 0.0 0.0 0.00 0.00 0.00 92 1011.3
20260905024220 63 11 0.0 0.0 0.00 0.00 0.00 92 1011.3
20260905024143 63 11 0.0 0.0 0.00 0.00 0.00 92 1011.3
20260905024005 63 11 0.0 0.0 0.00 0.00 0.00 92 1011.4
20260905023932 63 11 0.0 0.0 0.00 0.00 0.00 92 1011.4
20260905023742 63 11 0.0 0.0 0.00 0.00 0.00 92 1011.3
20260905023637 63 11 0.0 0.0 0.00 0.00 0.00 92 1011.3
20260905023600 63 11 0.0 0.0 0.00 0.00 0.00 92 1011.3
20260905023515 63 11 0.0 0.0 0.00 0.00 0.00 92 1011.3
20260905023436 63 11 0.0 0.0 0.00 0.00 0.00 92 1011.3
20260905023255 63 11 0.0 0.0 0.00 0.00 0.00 92 1011.3
20260905023210 63 11 0.0 0.0 0.00 0.00 0.00 92 1011.3
20260905023020 63 11 0.0 0.0 0.00 0.00 0.00 92 1011.2
20260905022941 63 11 0.0 0.0 0.00 0.00 0.00 92 1011.2
20260905022813 63 11 0.0 0.0 0.00 0.00 0.00 92 1011.4
20260905022730 63 11 0.0 0.0 0.00 0.00 0.00 92 1011.4
20260905022540 63 11 0.0 0.0 0.00 0.00 0.00 91 1011.4
20260905022434 63 11 0.0 0.0 0.00 0.00 0.00 91 1011.4
20260905022357 63 11 0.0 0.0 0.00 0.00 0.00 91 1011.4
20260905022301 63 11 0.0 0.0 0.00 0.00 0.00 91 1011.4
20260905022141 63 11 0.0 0.0 0.00 0.00 0.00 91 1011.5
20260905022035 63 11 0.0 0.0 0.00 0.00 0.00 91 1011.5
20260905021958 63 11 0.0 0.0 0.00 0.00 0.00 91 1011.5
20260905021900 63 11 0.0 0.0 0.00 0.00 0.00 90 1011.6
20260905021827 63 11 0.0 0.0 0.00 0.00 0.00 90 1011.6
20260905021657 63 11 0.0 0.0 0.00 0.00 0.00 90 1011.6
20260905021611 63 11 0.0 0.0 0.00 0.00 0.00 90 1011.6
20260905021442 63 11 0.0 0.0 0.00 0.00 0.00 90 1011.6
20260905021342 63 11 0.0 0.0 0.00 0.00 0.00 90 1011.6
20260905021153 63 11 0.0 0.0 0.00 0.00 0.00 90 1011.6
20260905021055 63 11 0.0 0.0 0.00 0.00 0.00 90 1011.6
20260905021016 63 11 0.0 0.0 0.00 0.00 0.00 90 1011.6
20260905020846 63 11 0.0 0.0 0.00 0.00 0.00 90 1011.6
20260905020742 63 11 0.0 0.0 0.00 0.00 0.00 90 1011.6
20260905020702 63 11 0.0 0.0 0.00 0.00 0.00 90 1011.7
20260905020605 63 11 0.0 0.0 0.00 0.00 0.00 90 1011.7
20260905020531 64 11 0.0 0.0 0.00 0.00 0.00 90 1011.7
20260905020401 64 11 0.0 0.0 0.00 0.00 0.00 89 1011.7
20260905020317 64 11 0.0 0.0 0.00 0.00 0.00 89 1011.7
20260905020126 64 11 0.0 0.0 0.00 0.00 0.00 89 1011.7
20260905020041 64 11 0.0 0.0 0.00 0.00 0.00 89 1011.6
20260905015831 64 11 0.0 0.0 0.00 0.00 0.00 90 1011.6
20260905015746 64 11 0.0 0.0 0.00 0.00 0.00 90 1011.6
20260905015617 64 11 0.0 0.0 0.00 0.00 0.00 90 1011.5
20260905015540 64 11 0.0 0.0 0.00 0.00 0.00 90 1011.5
20260905015328 64 11 0.0 0.9 0.00 0.00 0.00 90 1011.6
20260905015249 64 11 0.0 1.7 0.00 0.00 0.00 90 1011.5
20260905015152 64 11 0.0 2.6 0.00 0.00 0.00 89 1011.6
20260905015115 64 11 0.0 2.6 0.00 0.00 0.00 89 1011.6
20260905014943 64 11 0.0 2.6 0.00 0.00 0.00 89 1011.5
20260905014840 64 11 0.0 2.6 0.00 0.00 0.00 89 1011.6
20260905014723 64 11 0.0 2.6 0.00 0.00 0.00 89 1011.6
20260905014646 64 11 0.0 2.6 0.00 0.00 0.00 89 1011.6
20260905014515 64 11 0.9 2.6 0.00 0.00 0.00 89 1011.7
20260905014432 64 11 0.9 2.6 0.00 0.00 0.00 90 1011.7
20260905014246 64 93 0.0 0.0 0.00 0.00 0.00 90 1011.7
20260905014140 64 93 0.0 0.0 0.00 0.00 0.00 90 1011.7
20260905014024 64 93 0.0 0.0 0.00 0.00 0.00 90 1011.7
20260905013945 64 93 0.0 0.0 0.00 0.00 0.00 90 1011.7
20260905013905 64 93 0.0 0.0 0.00 0.00 0.00 90 1011.7
20260905013811 64 93 0.0 0.0 0.00 0.00 0.00 90 1011.7
20260905013732 64 93 0.0 0.0 0.00 0.00 0.00 90 1011.7
20260905013545 64 93 0.0 0.0 0.00 0.00 0.00 90 1011.7
20260905013437 64 93 0.0 0.0 0.00 0.00 0.00 90 1011.7
20260905013402 64 93 0.0 0.0 0.00 0.00 0.00 90 1011.7
20260905013306 64 93 0.0 0.0 0.00 0.00 0.00 90 1011.7
20260905013228 64 93 0.0 0.0 0.00 0.00 0.00 90 1011.7
20260905013032 64 93 0.0 0.0 0.00 0.00 0.00 90 1011.7
20260905012932 64 93 0.0 0.0 0.00 0.00 0.00 89 1011.7
20260905012836 64 93 0.0 0.0 0.00 0.00 0.00 89 1011.7
20260905012737 64 93 0.0 0.0 0.00 0.00 0.00 89 1011.7
20260905012606 64 93 0.0 0.0 0.00 0.00 0.00 89 1011.6
20260905012532 64 93 0.0 0.0 0.00 0.00 0.00 89 1011.6
20260905012341 64 93 0.0 0.0 0.00 0.00 0.00 89 1011.6
20260905012240 64 93 0.0 0.0 0.00 0.00 0.00 89 1011.6
20260905012126 64 93 0.0 0.0 0.00 0.00 0.00 89 1011.6
20260905012046 64 93 0.0 0.0 0.00 0.00 0.00 89 1011.6
20260905011918 64 93 0.0 0.0 0.00 0.00 0.00 88 1011.6
20260905011833 64 93 0.0 0.0 0.00 0.00 0.00 88 1011.6
20260905011701 64 93 0.0 0.0 0.00 0.00 0.00 88 1011.5
20260905011533 64 93 0.0 0.0 0.00 0.00 0.00 88 1011.5
20260905011453 64 93 0.0 0.0 0.00 0.00 0.00 88 1011.5
20260905011415 64 93 0.0 0.0 0.00 0.00 0.00 88 1011.5
20260905011237 65 93 0.0 0.0 0.00 0.00 0.00 88 1011.5
20260905011142 64 93 0.0 0.0 0.00 0.00 0.00 88 1011.6
20260905011027 64 93 0.0 0.0 0.00 0.00 0.00 88 1011.6
20260905010948 64 93 0.0 0.0 0.00 0.00 0.00 88 1011.6
20260905010819 65 93 0.0 0.0 0.00 0.00 0.00 88 1011.6
20260905010735 65 93 0.0 0.0 0.00 0.00 0.00 88 1011.6
20260905010513 65 93 0.0 0.0 0.00 0.00 0.00 88 1011.6
20260905010435 65 93 0.0 0.0 0.00 0.00 0.00 88 1011.6
20260905010240 65 93 0.0 0.0 0.00 0.00 0.00 87 1011.6
20260905010200 65 93 0.0 0.0 0.00 0.00 0.00 87 1011.6
20260905010028 65 93 0.0 0.0 0.00 0.00 0.00 87 1011.6
20260905005858 65 93 0.0 0.0 0.00 0.00 0.00 87 1011.6
20260905005814 65 93 0.0 0.0 0.00 0.00 0.00 87 1011.6
20260905005623 65 93 0.0 0.0 0.00 0.00 0.00 87 1011.6
20260905005541 65 93 0.0 0.0 0.00 0.00 0.00 87 1011.6
20260905005409 65 93 0.0 0.0 0.00 0.00 0.00 87 1011.6
20260905005332 65 93 0.0 0.0 0.00 0.00 0.00 86 1011.6
20260905005135 65 93 0.0 0.0 0.00 0.00 0.00 86 1011.6
20260905005038 65 93 0.0 0.0 0.00 0.00 0.00 86 1011.7
20260905004941 65 93 0.0 0.0 0.00 0.00 0.00 87 1011.7
20260905004846 65 93 0.0 0.0 0.00 0.00 0.00 87 1011.7
20260905004717 65 93 0.0 0.0 0.00 0.00 0.00 86 1011.6
20260905004633 65 93 0.0 0.0 0.00 0.00 0.00 86 1011.6
20260905004504 65 93 0.0 0.0 0.00 0.00 0.00 86 1011.6
20260905004426 65 93 0.0 0.0 0.00 0.00 0.00 86 1011.6
20260905004308 65 93 0.0 0.0 0.00 0.00 0.00 86 1011.6
20260905004226 65 93 0.0 0.0 0.00 0.00 0.00 86 1011.6
20260905004028 65 93 0.0 0.0 0.00 0.00 0.00 86 1011.6
20260905003929 65 93 0.0 0.0 0.00 0.00 0.00 86 1011.6
20260905003833 65 93 0.0 0.0 0.00 0.00 0.00 86 1011.6
20260905003738 65 93 0.0 0.0 0.00 0.00 0.00 85 1011.6
20260905003659 65 93 0.0 0.0 0.00 0.00 0.00 85 1011.6
20260905003603 65 93 0.0 0.0 0.00 0.00 0.00 85 1011.5
20260905003524 65 93 0.0 0.0 0.00 0.00 0.00 85 1011.5
20260905003327 65 93 0.0 0.0 0.00 0.00 0.00 85 1011.5
20260905003228 65 93 0.0 0.0 0.00 0.00 0.00 85 1011.5
20260905003131 65 93 0.0 0.0 0.00 0.00 0.00 85 1011.4
20260905003053 65 93 0.0 0.0 0.00 0.00 0.00 85 1011.4
20260905003015 65 93 0.0 0.0 0.00 0.00 0.00 85 1011.4
20260905002823 65 93 0.0 0.0 0.00 0.00 0.00 85 1011.4
20260905002737 65 93 0.0 0.0 0.00 0.00 0.00 85 1011.4
20260905002527 65 93 0.0 0.0 0.00 0.00 0.00 85 1011.4
20260905002441 66 93 0.0 0.0 0.00 0.00 0.00 85 1011.4
20260905002229 66 93 0.0 0.0 0.00 0.00 0.00 85 1011.3
20260905002145 66 93 0.0 0.0 0.00 0.00 0.00 84 1011.3
20260905001953 66 93 0.0 0.0 0.00 0.00 0.00 84 1011.3
20260905001853 66 93 0.0 0.0 0.00 0.00 0.00 84 1011.3
20260905001737 66 93 0.0 0.0 0.00 0.00 0.00 84 1011.3
20260905001659 66 93 0.0 0.0 0.00 0.00 0.00 84 1011.3
20260905001513 66 93 0.0 0.0 0.00 0.00 0.00 84 1011.4
20260905001429 66 93 0.0 0.0 0.00 0.00 0.00 84 1011.4
20260905001259 66 93 0.0 0.0 0.00 0.00 0.00 84 1011.3
20260905001222 66 93 0.0 0.0 0.00 0.00 0.00 84 1011.3
20260905001136 66 93 0.0 0.0 0.00 0.00 0.00 84 1011.3
20260905001008 66 93 0.0 0.0 0.00 0.00 0.00 83 1011.2
20260905000908 66 93 0.0 0.0 0.00 0.00 0.00 83 1011.3
20260905000752 66 93 0.0 0.0 0.00 0.00 0.00 83 1011.2
20260905000714 66 93 0.0 0.0 0.00 0.00 0.00 83 1011.2
20260905000427 66 93 0.0 0.0 0.00 0.00 0.00 83 1011.2
20260905000328 67 93 0.0 0.0 0.00 0.00 0.00 82 1011.2
20260905000255 67 93 0.0 0.0 0.00 0.00 0.00 82 1011.2
20260905000218 67 93 0.0 0.0 0.00 0.00 0.00 82 1011.1
20260905000139 67 93 0.0 0.0 0.00 0.00 0.00 82 1011.1
20260905000008 67 93 0.0 0.0 0.00 0.00 0.00 82 1011.1
20260904235923 67 93 0.0 0.0 0.00 0.00 0.00 82 1011.1
20260904235732 67 93 0.0 0.0 0.00 0.00 0.00 82 1011.1
20260904235627 67 93 0.0 0.0 0.00 0.00 0.00 81 1011.0
20260904235548 67 93 0.0 0.0 0.00 0.00 0.00 81 1011.0
20260904235452 67 93 0.0 0.0 0.00 0.00 0.00 81 1011.0
20260904235352 67 93 0.0 0.0 0.00 0.00 0.00 81 1011.0
20260904235315 67 93 0.0 0.0 0.00 0.00 0.00 81 1011.0
20260904235202 67 93 0.0 1.7 0.00 0.00 0.00 81 1011.0
20260904235122 67 93 0.0 1.7 0.00 0.00 0.00 81 1011.0
20260904234952 67 93 0.0 1.7 0.00 0.00 0.00 81 1011.0
20260904234916 67 93 0.0 1.7 0.00 0.00 0.00 81 1011.0
20260904234726 67 93 0.0 1.7 0.00 0.00 0.00 80 1010.9
20260904234643 67 93 0.0 1.7 0.00 0.00 0.00 80 1010.9
20260904234431 67 93 0.0 1.7 0.00 0.00 0.00 80 1010.9
20260904234345 67 93 0.0 1.7 0.00 0.00 0.00 80 1010.9
20260904234216 68 36 0.0 1.7 0.00 0.00 0.00 81 1010.9
20260904234137 68 36 0.9 1.7 0.00 0.00 0.00 81 1010.9
20260904234009 68 36 0.0 1.7 0.00 0.00 0.00 80 1010.9
20260904233928 68 36 0.0 0.9 0.00 0.00 0.00 80 1010.9
20260904233759 68 36 0.9 0.9 0.00 0.00 0.00 80 1010.9
20260904233720 68 36 0.0 0.9 0.00 0.00 0.00 81 1010.9
20260904233523 68 36 0.0 0.0 0.00 0.00 0.00 81 1010.9
20260904233446 68 36 0.0 0.0 0.00 0.00 0.00 80 1010.9
20260904233350 68 36 0.0 0.0 0.00 0.00 0.00 80 1010.9
20260904233312 68 36 0.0 0.9 0.00 0.00 0.00 79 1010.9
20260904233129 68 36 0.0 0.9 0.00 0.00 0.00 79 1010.8
20260904233022 68 36 0.0 0.9 0.00 0.00 0.00 79 1010.8
20260904232852 68 36 0.0 0.9 0.00 0.00 0.00 79 1010.8
20260904232815 68 36 0.0 0.9 0.00 0.00 0.00 79 1010.8
20260904232623 68 36 0.0 1.7 0.00 0.00 0.00 79 1010.8
20260904232525 69 36 0.0 1.7 0.00 0.00 0.00 79 1010.9
20260904232429 69 36 0.0 1.7 0.00 0.00 0.00 78 1010.9
20260904232330 69 36 0.0 1.7 0.00 0.00 0.00 78 1010.9
20260904232132 69 36 0.0 1.7 0.00 0.00 0.00 79 1011.0
20260904232035 69 36 0.0 1.7 0.00 0.00 0.00 78 1011.0
20260904231950 69 36 0.0 1.7 0.00 0.00 0.00 78 1010.9
20260904231912 69 36 0.0 1.7 0.00 0.00 0.00 78 1010.9
20260904231751 69 36 0.0 1.7 0.00 0.00 0.00 78 1010.9
20260904231705 69 30 0.0 1.7 0.00 0.00 0.00 79 1010.9
20260904231540 69 355 0.0 0.0 0.00 0.00 0.00 78 1010.9
20260904231440 69 355 0.0 0.0 0.00 0.00 0.00 78 1010.9
20260904231223 69 355 0.0 0.0 0.00 0.00 0.00 77 1011.0
20260904231147 69 355 0.0 0.0 0.00 0.00 0.00 78 1011.0
20260904231031 69 355 0.0 0.9 0.00 0.00 0.00 77 1011.0
20260904230951 69 355 0.0 0.9 0.00 0.00 0.00 78 1011.0
20260904230730 70 355 0.0 0.9 0.00 0.00 0.00 76 1011.1
20260904230653 70 355 0.0 0.9 0.00 0.00 0.00 76 1011.1
20260904230557 70 355 0.0 0.9 0.00 0.00 0.00 76 1011.1
20260904230522 70 355 0.0 0.9 0.00 0.00 0.00 76 1011.1
20260904230352 70 355 0.0 1.7 0.00 0.00 0.00 75 1011.1
20260904230309 70 355 0.0 1.7 0.00 0.00 0.00 74 1011.1
20260904230047 70 355 0.0 2.6 0.00 0.00 0.00 73 1011.1
20260904225947 70 355 0.0 3.5 0.00 0.00 0.00 74 1011.0
20260904225832 70 355 0.0 3.5 0.00 0.00 0.00 73 1011.1
20260904225753 70 355 0.0 3.5 0.00 0.00 0.00 74 1011.1
20260904225625 70 355 0.9 3.5 0.00 0.00 0.00 74 1011.1
20260904225528 70 355 0.9 3.5 0.00 0.00 0.00 74 1011.1
20260904225339 70 355 0.9 3.5 0.00 0.00 0.00 74 1011.1
20260904225236 70 355 1.7 3.5 0.00 0.00 0.00 73 1011.2
20260904225159 70 355 1.7 3.5 0.00 0.00 0.00 73 1011.1
20260904225044 70 9 1.7 3.5 0.00 0.00 0.00 73 1011.1
20260904224944 70 9 1.7 3.5 0.00 0.00 0.00 73 1011.2
20260904224849 70 348 1.7 3.5 0.00 0.00 0.00 72 1011.1
20260904224810 70 61 0.9 2.6 0.00 0.00 0.00 73 1011.1
20260904224619 70 329 0.0 2.6 0.00 0.00 0.00 75 1011.2
20260904224533 70 329 0.9 2.6 0.00 0.00 0.00 73 1011.2
20260904224342 70 329 1.7 2.6 0.00 0.00 0.00 73 1011.1
20260904224236 70 329 0.9 2.6 0.00 0.00 0.00 74 1011.1
20260904224124 70 341 0.0 0.0 0.00 0.00 0.00 75 1011.1
20260904224045 70 341 0.0 0.0 0.00 0.00 0.00 73 1011.1
20260904223915 70 341 0.0 0.0 0.00 0.00 0.00 73 1011.0
20260904223831 70 341 0.0 0.0 0.00 0.00 0.00 73 1011.0
20260904223642 71 341 0.0 1.7 0.00 0.00 0.00 74 1011.0
20260904223605 71 341 0.0 1.7 0.00 0.00 0.00 74 1011.0
20260904223427 71 341 0.0 1.7 0.00 0.00 0.00 74 1011.0
20260904223351 71 341 0.0 1.7 0.00 0.00 0.00 73 1011.0
20260904223234 71 341 0.0 2.6 0.00 0.00 0.00 72 1011.0
20260904223136 71 341 0.0 4.3 0.00 0.00 0.00 73 1011.0
20260904222923 71 341 0.9 5.2 0.00 0.00 0.00 70 1010.9
20260904222824 71 341 0.9 5.2 0.00 0.00 0.00 71 1011.0
20260904222728 71 341 0.9 5.2 0.00 0.00 0.00 70 1010.9
20260904222649 71 341 0.9 5.2 0.00 0.00 0.00 70 1010.9
20260904222521 71 341 1.7 5.2 0.00 0.00 0.00 69 1010.9
20260904222435 71 341 1.7 5.2 0.00 0.00 0.00 70 1010.9
20260904222317 71 355 2.6 5.2 0.00 0.00 0.00 69 1010.9
20260904222237 71 316 2.6 5.2 0.00 0.00 0.00 70 1010.9
20260904222048 71 5 2.6 5.2 0.00 0.00 0.00 70 1011.0
20260904221926 71 336 2.6 7.8 0.00 0.00 0.00 69 1011.0
20260904221830 71 327 1.7 7.8 0.00 0.00 0.00 72 1011.0
20260904221753 71 304 1.7 7.8 0.00 0.00 0.00 70 1011.0
20260904221715 71 302 0.9 7.8 0.00 0.00 0.00 71 1011.0
20260904221620 71 342 1.7 7.8 0.00 0.00 0.00 71 1011.0
20260904221521 71 334 2.6 7.8 0.00 0.00 0.00 72 1011.0
20260904221325 71 331 3.5 7.8 0.00 0.00 0.00 70 1011.0
20260904221227 71 29 3.5 7.8 0.00 0.00 0.00 72 1011.0
20260904221123 72 339 2.6 7.0 0.00 0.00 0.00 71 1011.0
20260904221044 72 333 2.6 7.0 0.00 0.00 0.00 71 1011.0
20260904221012 72 11 2.6 7.0 0.00 0.00 0.00 72 1011.0
20260904220916 72 337 2.6 7.0 0.00 0.00 0.00 71 1011.0
20260904220837 72 318 3.5 7.0 0.00 0.00 0.00 71 1011.0
20260904220647 72 336 3.5 7.0 0.00 0.00 0.00 70 1011.0
20260904220604 72 338 3.5 7.0 0.00 0.00 0.00 71 1010.9
20260904220413 72 343 2.6 5.2 0.00 0.00 0.00 71 1010.9